Time,TemperatureF,DewpointF,PressureIn,WindDirection,WindDirectionDegrees,WindSpeedMPH,WindSpeedGustMPH,Humidity,HourlyPrecipIn,Conditions,Clouds,dailyrainin,SolarRadiationWatts/m^2,SoftwareType,DateUTC
2013-11-21 00:00:00,36.7,34.9,30.15,SSE,161,2.0,2.0,93,0.00,,,0.00,0,Wunderground v.1.15,2013-11-21 06:00:00,
2013-11-21 00:04:00,36.7,34.9,30.15,South,182,2.0,4.0,93,0.00,,,0.00,0,Wunderground v.1.15,2013-11-21 06:04:00,
2013-11-21 00:06:00,36.7,34.9,30.15,South,182,2.0,4.0,93,0.00,,,0.00,0,Wunderground v.1.15,2013-11-21 06:06:00,
2013-11-21 00:08:00,36.7,34.9,30.15,South,175,2.0,4.0,93,0.00,,,0.00,0,Wunderground v.1.15,2013-11-21 06:08:00,
2013-11-21 00:10:00,36.7,34.9,30.15,SSE,160,2.0,2.0,93,0.00,,,0.00,0,Wunderground v.1.15,2013-11-21 06:10:00,
2013-11-21 00:11:00,36.7,34.9,30.15,SSE,160,2.0,4.0,93,0.00,,,0.00,0,Wunderground v.1.15,2013-11-21 06:11:00,
2013-11-21 00:13:00,36.7,34.9,30.15,SSE,161,3.0,4.0,93,0.00,,,0.00,0,Wunderground v.1.15,2013-11-21 06:13:00,
2013-11-21 00:15:00,36.7,34.9,30.15,SSE,161,3.0,4.0,93,0.00,,,0.00,0,Wunderground v.1.15,2013-11-21 06:15:00,
2013-11-21 00:17:00,36.7,34.9,30.15,SSE,161,3.0,4.0,93,0.00,,,0.00,0,Wunderground v.1.15,2013-11-21 06:17:00,
2013-11-21 00:18:00,36.7,34.9,30.15,SSE,163,3.0,4.0,93,0.00,,,0.00,0,Wunderground v.1.15,2013-11-21 06:18:00,
2013-11-21 00:19:00,36.8,35.0,30.15,SSE,163,3.0,4.0,93,0.00,,,0.00,0,Wunderground v.1.15,2013-11-21 06:19:00,
2013-11-21 00:20:00,36.8,35.0,30.15,SSE,163,2.0,4.0,93,0.00,,,0.00,0,Wunderground v.1.15,2013-11-21 06:20:00,
2013-11-21 00:23:00,36.8,35.0,30.15,SSE,158,2.0,4.0,93,0.00,,,0.00,0,Wunderground v.1.15,2013-11-21 06:23:00,
2013-11-21 00:25:00,36.8,35.0,30.15,SSE,158,2.0,4.0,93,0.00,,,0.00,0,Wunderground v.1.15,2013-11-21 06:25:00,
2013-11-21 00:26:00,36.8,35.0,30.15,SSE,158,2.0,4.0,93,0.00,,,0.00,0,Wunderground v.1.15,2013-11-21 06:26:00,
2013-11-21 00:27:00,36.8,35.0,30.15,SSE,158,2.0,4.0,93,0.00,,,0.00,0,Wunderground v.1.15,2013-11-21 06:27:00,
2013-11-21 00:30:00,36.8,35.0,30.15,SSE,158,2.0,2.0,93,0.00,,,0.00,0,Wunderground v.1.15,2013-11-21 06:30:00,
2013-11-21 00:32:00,36.8,35.0,30.15,SSE,158,2.0,2.0,93,0.00,,,0.00,0,Wunderground v.1.15,2013-11-21 06:32:00,
2013-11-21 00:34:00,36.8,35.0,30.15,SSE,158,1.0,2.0,93,0.00,,,0.00,0,Wunderground v.1.15,2013-11-21 06:34:00,
2013-11-21 00:35:00,36.8,35.0,30.15,SSE,158,1.0,2.0,93,0.00,,,0.00,0,Wunderground v.1.15,2013-11-21 06:35:00,
2013-11-21 00:36:00,36.8,35.0,30.15,SSE,158,1.0,2.0,93,0.00,,,0.00,0,Wunderground v.1.15,2013-11-21 06:36:00,
2013-11-21 00:38:00,36.8,35.0,30.15,SSE,158,1.0,5.0,93,0.00,,,0.00,0,Wunderground v.1.15,2013-11-21 06:38:00,
2013-11-21 00:40:00,36.8,35.0,30.15,SSE,159,1.0,6.0,93,0.00,,,0.00,0,Wunderground v.1.15,2013-11-21 06:40:00,
2013-11-21 00:41:00,36.8,35.0,30.15,SSE,160,2.0,6.0,93,0.00,,,0.00,0,Wunderground v.1.15,2013-11-21 06:41:00,
2013-11-21 00:45:00,36.8,35.0,30.15,SSE,160,2.0,6.0,93,0.00,,,0.00,0,Wunderground v.1.15,2013-11-21 06:45:00,
2013-11-21 00:46:00,36.8,35.0,30.15,SSE,160,2.0,6.0,93,0.00,,,0.00,0,Wunderground v.1.15,2013-11-21 06:46:00,
2013-11-21 00:47:00,36.8,35.0,30.15,SSE,160,3.0,6.0,93,0.00,,,0.00,0,Wunderground v.1.15,2013-11-21 06:47:00,
2013-11-21 00:49:00,36.8,35.0,30.15,SSE,160,3.0,6.0,93,0.00,,,0.00,0,Wunderground v.1.15,2013-11-21 06:49:00,
2013-11-21 00:52:00,36.8,35.0,30.15,SSE,160,2.0,4.0,93,0.00,,,0.00,0,Wunderground v.1.15,2013-11-21 06:52:00,
2013-11-21 00:54:00,36.8,35.0,30.15,SSE,160,2.0,4.0,93,0.00,,,0.00,0,Wunderground v.1.15,2013-11-21 06:54:00,
2013-11-21 00:57:00,36.8,35.0,30.15,SSE,160,1.0,4.0,93,0.00,,,0.00,0,Wunderground v.1.15,2013-11-21 06:57:00,
2013-11-21 00:59:00,36.8,35.0,30.15,SSE,160,1.0,4.0,93,0.00,,,0.00,0,Wunderground v.1.15,2013-11-21 06:59:00,
2013-11-21 01:00:00,36.8,35.0,30.15,SSE,156,1.0,6.0,93,0.00,,,0.00,0,Wunderground v.1.15,2013-11-21 07:00:00,
2013-11-21 01:03:00,36.8,35.0,30.16,SSE,156,2.0,6.0,93,0.00,,,0.00,0,Wunderground v.1.15,2013-11-21 07:03:00,
2013-11-21 01:05:00,36.8,35.0,30.16,SSE,156,2.0,6.0,93,0.00,,,0.00,0,Wunderground v.1.15,2013-11-21 07:05:00,
2013-11-21 01:06:00,36.8,35.0,30.15,SSE,156,2.0,6.0,93,0.00,,,0.00,0,Wunderground v.1.15,2013-11-21 07:06:00,
2013-11-21 01:07:00,36.9,35.1,30.15,SSE,156,2.0,6.0,93,0.00,,,0.00,0,Wunderground v.1.15,2013-11-21 07:07:00,
2013-11-21 01:10:00,36.8,35.0,30.16,SSE,156,1.0,1.0,93,0.00,,,0.00,0,Wunderground v.1.15,2013-11-21 07:10:00,
2013-11-21 01:12:00,36.9,35.1,30.15,SSE,156,0.0,1.0,93,0.00,,,0.00,0,Wunderground v.1.15,2013-11-21 07:12:00,
2013-11-21 01:14:00,36.8,35.0,30.15,SSE,156,0.0,1.0,93,0.00,,,0.00,0,Wunderground v.1.15,2013-11-21 07:14:00,
2013-11-21 01:16:00,36.9,35.1,30.15,SSE,156,1.0,2.0,93,0.00,,,0.00,0,Wunderground v.1.15,2013-11-21 07:16:00,
2013-11-21 01:19:00,36.9,35.1,30.16,SSE,156,1.0,2.0,93,0.00,,,0.00,0,Wunderground v.1.15,2013-11-21 07:19:00,
2013-11-21 01:20:00,36.9,35.1,30.16,SSE,156,1.0,2.0,93,0.00,,,0.00,0,Wunderground v.1.15,2013-11-21 07:20:00,
2013-11-21 01:23:00,36.9,35.1,30.16,SSE,156,1.0,2.0,93,0.00,,,0.00,0,Wunderground v.1.15,2013-11-21 07:23:00,
2013-11-21 01:24:00,36.9,35.1,30.16,SSE,156,1.0,2.0,93,0.00,,,0.00,0,Wunderground v.1.15,2013-11-21 07:24:00,
2013-11-21 01:26:00,36.9,35.1,30.16,SSE,156,1.0,2.0,93,0.00,,,0.00,0,Wunderground v.1.15,2013-11-21 07:26:00,
2013-11-21 01:27:00,36.9,35.1,30.16,SSE,156,1.0,2.0,93,0.00,,,0.00,0,Wunderground v.1.15,2013-11-21 07:27:00,
2013-11-21 01:29:00,36.9,35.1,30.16,SSE,156,1.0,2.0,93,0.00,,,0.00,0,Wunderground v.1.15,2013-11-21 07:29:00,
2013-11-21 01:31:00,36.9,35.1,30.16,SSE,156,1.0,1.0,93,0.00,,,0.00,0,Wunderground v.1.15,2013-11-21 07:31:00,
2013-11-21 01:33:00,36.9,35.1,30.16,SSE,156,1.0,1.0,93,0.00,,,0.00,0,Wunderground v.1.15,2013-11-21 07:33:00,
2013-11-21 01:34:00,36.9,35.1,30.16,SSE,156,1.0,1.0,93,0.00,,,0.00,0,Wunderground v.1.15,2013-11-21 07:34:00,
2013-11-21 01:35:00,36.9,35.1,30.16,SSE,156,1.0,2.0,93,0.00,,,0.00,0,Wunderground v.1.15,2013-11-21 07:35:00,
2013-11-21 01:37:00,36.9,35.1,30.16,SSE,156,1.0,4.0,93,0.00,,,0.00,0,Wunderground v.1.15,2013-11-21 07:37:00,
2013-11-21 01:39:00,36.9,35.1,30.16,SSE,156,1.0,4.0,93,0.00,,,0.00,0,Wunderground v.1.15,2013-11-21 07:39:00,
2013-11-21 01:40:00,36.9,35.1,30.15,SSE,156,1.0,2.0,93,0.00,,,0.00,0,Wunderground v.1.15,2013-11-21 07:40:00,
2013-11-21 01:41:00,36.9,35.1,30.16,SSE,156,1.0,2.0,93,0.00,,,0.00,0,Wunderground v.1.15,2013-11-21 07:41:00,
2013-11-21 01:43:00,36.9,35.1,30.15,SSE,156,1.0,2.0,93,0.00,,,0.00,0,Wunderground v.1.15,2013-11-21 07:43:00,
2013-11-21 01:44:00,36.9,35.1,30.16,SSE,156,1.0,2.0,93,0.00,,,0.00,0,Wunderground v.1.15,2013-11-21 07:44:00,
2013-11-21 01:46:00,36.9,35.1,30.16,SSE,156,1.0,2.0,93,0.00,,,0.00,0,Wunderground v.1.15,2013-11-21 07:46:00,
2013-11-21 01:48:00,36.9,35.1,30.16,SSE,156,1.0,2.0,93,0.00,,,0.00,0,Wunderground v.1.15,2013-11-21 07:48:00,
2013-11-21 01:49:00,36.9,35.1,30.16,SSE,156,1.0,2.0,93,0.00,,,0.00,0,Wunderground v.1.15,2013-11-21 07:49:00,
2013-11-21 01:51:00,36.9,35.1,30.16,SSE,156,1.0,2.0,93,0.00,,,0.00,0,Wunderground v.1.15,2013-11-21 07:51:00,
2013-11-21 01:52:00,36.9,35.1,30.16,SSE,156,1.0,2.0,93,0.00,,,0.00,0,Wunderground v.1.15,2013-11-21 07:52:00,
2013-11-21 01:53:00,36.9,35.1,30.16,SSE,156,1.0,2.0,93,0.00,,,0.00,0,Wunderground v.1.15,2013-11-21 07:53:00,
2013-11-21 01:56:00,37.0,35.2,30.16,SSE,156,1.0,4.0,93,0.00,,,0.00,0,Wunderground v.1.15,2013-11-21 07:56:00,
2013-11-21 01:58:00,37.0,35.2,30.16,SSE,156,1.0,4.0,93,0.00,,,0.00,0,Wunderground v.1.15,2013-11-21 07:58:00,
2013-11-21 01:59:00,37.0,35.2,30.16,SSE,156,1.0,4.0,93,0.00,,,0.00,0,Wunderground v.1.15,2013-11-21 07:59:00,
2013-11-21 02:01:00,36.9,35.1,30.16,SSE,156,1.0,1.0,93,0.00,,,0.00,0,Wunderground v.1.15,2013-11-21 08:01:00,
2013-11-21 02:04:00,37.0,35.2,30.16,SSE,156,1.0,1.0,93,0.00,,,0.00,0,Wunderground v.1.15,2013-11-21 08:04:00,
2013-11-21 02:05:00,37.0,35.2,30.16,SSE,156,1.0,2.0,93,0.00,,,0.00,0,Wunderground v.1.15,2013-11-21 08:05:00,
2013-11-21 02:06:00,37.0,35.2,30.16,SSE,156,1.0,2.0,93,0.00,,,0.00,0,Wunderground v.1.15,2013-11-21 08:06:00,
2013-11-21 02:07:00,37.0,35.2,30.16,SSE,156,0.0,2.0,93,0.00,,,0.00,0,Wunderground v.1.15,2013-11-21 08:07:00,
2013-11-21 02:09:00,37.0,35.2,30.16,SSE,156,0.0,2.0,93,0.00,,,0.00,0,Wunderground v.1.15,2013-11-21 08:09:00,
2013-11-21 02:10:00,37.0,35.2,30.16,SSE,156,0.0,0.0,93,0.00,,,0.00,0,Wunderground v.1.15,2013-11-21 08:10:00,
2013-11-21 02:11:00,37.0,35.2,30.16,SSE,156,0.0,0.0,93,0.00,,,0.00,0,Wunderground v.1.15,2013-11-21 08:11:00,
2013-11-21 02:12:00,37.0,35.2,30.16,SSE,156,0.0,0.0,93,0.00,,,0.00,0,Wunderground v.1.15,2013-11-21 08:12:00,
2013-11-21 02:13:00,37.0,35.2,30.16,SSE,156,0.0,0.0,93,0.00,,,0.00,0,Wunderground v.1.15,2013-11-21 08:13:00,
2013-11-21 02:14:00,37.0,35.2,30.16,SSE,156,0.0,0.0,93,0.00,,,0.00,0,Wunderground v.1.15,2013-11-21 08:14:00,
2013-11-21 02:15:00,37.0,35.2,30.16,SSE,156,0.0,0.0,93,0.00,,,0.00,0,Wunderground v.1.15,2013-11-21 08:15:00,
2013-11-21 02:16:00,37.0,35.2,30.16,SSE,156,0.0,0.0,93,0.00,,,0.00,0,Wunderground v.1.15,2013-11-21 08:16:00,
2013-11-21 02:21:00,37.0,35.2,30.17,SSE,156,0.0,0.0,93,0.00,,,0.00,0,Wunderground v.1.15,2013-11-21 08:21:00,
2013-11-21 02:23:00,37.0,35.2,30.17,SSE,156,0.0,0.0,93,0.00,,,0.00,0,Wunderground v.1.15,2013-11-21 08:23:00,
2013-11-21 02:24:00,37.0,35.2,30.17,SSE,156,0.0,0.0,93,0.00,,,0.00,0,Wunderground v.1.15,2013-11-21 08:24:00,
2013-11-21 02:27:00,37.0,35.2,30.17,SSE,156,0.0,0.0,93,0.00,,,0.00,0,Wunderground v.1.15,2013-11-21 08:27:00,
2013-11-21 02:28:00,37.0,35.2,30.17,SSE,156,0.0,0.0,93,0.00,,,0.00,0,Wunderground v.1.15,2013-11-21 08:28:00,
2013-11-21 02:29:00,37.0,35.2,30.17,SSE,156,0.0,0.0,93,0.00,,,0.00,0,Wunderground v.1.15,2013-11-21 08:29:00,
2013-11-21 02:32:00,37.0,35.2,30.17,SSE,156,0.0,2.0,93,0.00,,,0.00,0,Wunderground v.1.15,2013-11-21 08:32:00,
2013-11-21 02:33:00,37.0,35.2,30.17,SSE,156,0.0,2.0,93,0.00,,,0.00,0,Wunderground v.1.15,2013-11-21 08:33:00,
2013-11-21 02:35:00,37.0,35.2,30.17,SSE,156,0.0,2.0,93,0.00,,,0.00,0,Wunderground v.1.15,2013-11-21 08:35:00,
2013-11-21 02:37:00,37.0,35.2,30.17,SSE,156,0.0,2.0,93,0.00,,,0.00,0,Wunderground v.1.15,2013-11-21 08:37:00,
2013-11-21 02:40:00,37.0,35.2,30.17,SSE,156,0.0,0.0,93,0.00,,,0.00,0,Wunderground v.1.15,2013-11-21 08:40:00,
2013-11-21 02:41:00,37.0,35.2,30.17,SSE,156,0.0,0.0,93,0.00,,,0.00,0,Wunderground v.1.15,2013-11-21 08:41:00,
2013-11-21 02:46:00,37.0,35.2,30.17,SSE,156,0.0,0.0,93,0.00,,,0.00,0,Wunderground v.1.15,2013-11-21 08:46:00,
2013-11-21 02:47:00,37.0,35.2,30.17,SSE,156,0.0,0.0,93,0.00,,,0.00,0,Wunderground v.1.15,2013-11-21 08:47:00,
2013-11-21 02:49:00,37.0,35.2,30.17,SSE,156,0.0,0.0,93,0.00,,,0.00,0,Wunderground v.1.15,2013-11-21 08:49:00,
2013-11-21 02:51:00,37.0,35.2,30.17,SSE,156,0.0,0.0,93,0.00,,,0.00,0,Wunderground v.1.15,2013-11-21 08:51:00,
2013-11-21 02:53:00,37.0,35.2,30.16,SSE,156,0.0,0.0,93,0.00,,,0.00,0,Wunderground v.1.15,2013-11-21 08:53:00,
2013-11-21 02:54:00,37.0,35.2,30.17,SSE,156,0.0,0.0,93,0.00,,,0.00,0,Wunderground v.1.15,2013-11-21 08:54:00,
2013-11-21 02:55:00,37.0,35.2,30.16,SSE,156,0.0,0.0,93,0.00,,,0.00,0,Wunderground v.1.15,2013-11-21 08:55:00,
2013-11-21 02:59:00,37.1,35.3,30.16,SSE,156,0.0,0.0,93,0.00,,,0.00,0,Wunderground v.1.15,2013-11-21 08:59:00,
2013-11-21 03:01:00,37.1,35.3,30.17,SSE,156,0.0,0.0,93,0.00,,,0.00,0,Wunderground v.1.15,2013-11-21 09:01:00,
2013-11-21 03:02:00,37.0,35.2,30.17,SSE,156,0.0,0.0,93,0.00,,,0.00,0,Wunderground v.1.15,2013-11-21 09:02:00,
2013-11-21 03:04:00,37.0,35.2,30.16,SSE,156,0.0,0.0,93,0.00,,,0.00,0,Wunderground v.1.15,2013-11-21 09:04:00,
2013-11-21 03:07:00,37.1,35.3,30.16,SSE,156,0.0,0.0,93,0.00,,,0.00,0,Wunderground v.1.15,2013-11-21 09:07:00,
2013-11-21 03:08:00,37.1,35.3,30.16,SSE,156,0.0,0.0,93,0.00,,,0.00,0,Wunderground v.1.15,2013-11-21 09:08:00,
2013-11-21 03:09:00,37.1,35.3,30.16,SSE,156,0.0,0.0,93,0.00,,,0.00,0,Wunderground v.1.15,2013-11-21 09:09:00,
2013-11-21 03:11:00,37.0,35.2,30.16,SSE,156,0.0,0.0,93,0.00,,,0.00,0,Wunderground v.1.15,2013-11-21 09:11:00,
2013-11-21 03:12:00,37.1,35.3,30.17,SSE,156,0.0,0.0,93,0.00,,,0.00,0,Wunderground v.1.15,2013-11-21 09:12:00,
2013-11-21 03:14:00,37.0,35.2,30.17,SSE,156,0.0,0.0,93,0.00,,,0.00,0,Wunderground v.1.15,2013-11-21 09:14:00,
2013-11-21 03:15:00,37.0,35.2,30.17,SSE,156,0.0,0.0,93,0.00,,,0.00,0,Wunderground v.1.15,2013-11-21 09:15:00,
2013-11-21 03:18:00,37.1,35.3,30.17,SSE,156,0.0,0.0,93,0.00,,,0.00,0,Wunderground v.1.15,2013-11-21 09:18:00,
2013-11-21 03:19:00,37.0,35.2,30.17,SSE,156,0.0,0.0,93,0.00,,,0.00,0,Wunderground v.1.15,2013-11-21 09:19:00,
2013-11-21 03:20:00,37.0,35.2,30.17,SSE,156,0.0,0.0,93,0.00,,,0.00,0,Wunderground v.1.15,2013-11-21 09:20:00,
2013-11-21 03:21:00,37.1,35.3,30.17,SSE,156,0.0,0.0,93,0.00,,,0.00,0,Wunderground v.1.15,2013-11-21 09:21:00,
2013-11-21 03:25:00,37.1,35.3,30.17,SSE,156,0.0,0.0,93,0.00,,,0.00,0,Wunderground v.1.15,2013-11-21 09:25:00,
2013-11-21 03:26:00,37.1,35.3,30.17,SSE,156,0.0,0.0,93,0.00,,,0.00,0,Wunderground v.1.15,2013-11-21 09:26:00,
2013-11-21 03:27:00,37.1,35.3,30.17,SSE,156,0.0,0.0,93,0.00,,,0.00,0,Wunderground v.1.15,2013-11-21 09:27:00,
2013-11-21 03:28:00,37.1,35.3,30.17,SSE,156,0.0,0.0,93,0.00,,,0.00,0,Wunderground v.1.15,2013-11-21 09:28:00,
2013-11-21 03:30:00,37.1,35.3,30.17,SSE,156,0.0,0.0,93,0.00,,,0.00,0,Wunderground v.1.15,2013-11-21 09:30:00,
2013-11-21 03:31:00,37.0,35.2,30.17,SSE,156,0.0,0.0,93,0.00,,,0.00,0,Wunderground v.1.15,2013-11-21 09:31:00,
2013-11-21 03:32:00,37.1,35.3,30.17,SSE,156,0.0,0.0,93,0.00,,,0.00,0,Wunderground v.1.15,2013-11-21 09:32:00,
2013-11-21 03:33:00,37.1,35.3,30.17,SSE,156,0.0,0.0,93,0.00,,,0.00,0,Wunderground v.1.15,2013-11-21 09:33:00,
2013-11-21 03:36:00,37.1,35.3,30.16,SSE,156,0.0,0.0,93,0.00,,,0.00,0,Wunderground v.1.15,2013-11-21 09:36:00,
2013-11-21 03:37:00,37.1,35.3,30.16,SSE,156,0.0,0.0,93,0.00,,,0.00,0,Wunderground v.1.15,2013-11-21 09:37:00,
2013-11-21 03:39:00,37.1,35.3,30.16,SSE,156,0.0,0.0,93,0.00,,,0.00,0,Wunderground v.1.15,2013-11-21 09:39:00,
2013-11-21 03:44:00,37.1,35.3,30.16,SSE,156,0.0,0.0,93,0.00,,,0.00,0,Wunderground v.1.15,2013-11-21 09:44:00,
2013-11-21 03:45:00,37.1,35.3,30.16,SSE,156,0.0,0.0,93,0.00,,,0.00,0,Wunderground v.1.15,2013-11-21 09:45:00,
2013-11-21 03:46:00,37.1,35.3,30.16,SSE,156,0.0,0.0,93,0.00,,,0.00,0,Wunderground v.1.15,2013-11-21 09:46:00,
2013-11-21 03:47:00,37.1,35.3,30.16,SSE,156,0.0,0.0,93,0.00,,,0.00,0,Wunderground v.1.15,2013-11-21 09:47:00,
2013-11-21 03:49:00,37.1,35.3,30.16,SSE,156,0.0,0.0,93,0.00,,,0.00,0,Wunderground v.1.15,2013-11-21 09:49:00,
2013-11-21 03:50:00,37.1,35.3,30.16,SSE,156,0.0,0.0,93,0.00,,,0.00,0,Wunderground v.1.15,2013-11-21 09:50:00,
2013-11-21 03:52:00,37.1,35.3,30.16,SSE,156,0.0,0.0,93,0.00,,,0.00,0,Wunderground v.1.15,2013-11-21 09:52:00,
2013-11-21 03:55:00,37.1,35.3,30.16,SSE,156,0.0,0.0,93,0.00,,,0.00,0,Wunderground v.1.15,2013-11-21 09:55:00,
2013-11-21 03:56:00,37.1,35.3,30.16,SSE,156,0.0,0.0,93,0.00,,,0.00,0,Wunderground v.1.15,2013-11-21 09:56:00,
2013-11-21 03:57:00,37.1,35.3,30.16,SSE,156,0.0,0.0,93,0.00,,,0.00,0,Wunderground v.1.15,2013-11-21 09:57:00,
2013-11-21 03:59:00,37.1,35.3,30.16,SSE,156,0.0,0.0,93,0.00,,,0.00,0,Wunderground v.1.15,2013-11-21 09:59:00,
2013-11-21 04:02:00,37.1,35.3,30.16,SSE,156,0.0,0.0,93,0.00,,,0.00,0,Wunderground v.1.15,2013-11-21 10:02:00,
2013-11-21 04:03:00,37.1,35.3,30.16,SSE,156,0.0,0.0,93,0.00,,,0.00,0,Wunderground v.1.15,2013-11-21 10:03:00,
2013-11-21 04:04:00,37.1,35.3,30.16,SSE,156,0.0,0.0,93,0.00,,,0.00,0,Wunderground v.1.15,2013-11-21 10:04:00,
2013-11-21 04:05:00,37.1,35.3,30.16,SSE,156,0.0,0.0,93,0.00,,,0.00,0,Wunderground v.1.15,2013-11-21 10:05:00,
2013-11-21 04:08:00,37.1,35.3,30.16,SSE,156,0.0,0.0,93,0.00,,,0.00,0,Wunderground v.1.15,2013-11-21 10:08:00,
2013-11-21 04:10:00,37.1,35.3,30.17,SSE,156,0.0,0.0,93,0.00,,,0.00,0,Wunderground v.1.15,2013-11-21 10:10:00,
2013-11-21 04:11:00,37.1,35.3,30.17,SSE,156,0.0,0.0,93,0.00,,,0.00,0,Wunderground v.1.15,2013-11-21 10:11:00,
2013-11-21 04:13:00,37.1,35.3,30.16,SSE,156,0.0,0.0,93,0.00,,,0.00,0,Wunderground v.1.15,2013-11-21 10:13:00,
2013-11-21 04:14:00,37.1,35.3,30.16,SSE,156,0.0,0.0,93,0.00,,,0.00,0,Wunderground v.1.15,2013-11-21 10:14:00,
2013-11-21 04:15:00,37.1,35.3,30.17,SSE,156,0.0,0.0,93,0.00,,,0.00,0,Wunderground v.1.15,2013-11-21 10:15:00,
2013-11-21 04:17:00,37.1,35.3,30.16,SSE,156,0.0,0.0,93,0.00,,,0.00,0,Wunderground v.1.15,2013-11-21 10:17:00,
2013-11-21 04:19:00,37.1,35.3,30.16,SSE,156,0.0,0.0,93,0.00,,,0.00,0,Wunderground v.1.15,2013-11-21 10:19:00,
2013-11-21 04:20:00,37.1,35.3,30.16,SSE,156,0.0,0.0,93,0.00,,,0.00,0,Wunderground v.1.15,2013-11-21 10:20:00,
2013-11-21 04:22:00,37.1,35.3,30.17,SSE,156,0.0,0.0,93,0.00,,,0.00,0,Wunderground v.1.15,2013-11-21 10:22:00,
2013-11-21 04:23:00,37.1,35.3,30.17,SSE,156,0.0,0.0,93,0.00,,,0.00,0,Wunderground v.1.15,2013-11-21 10:23:00,
2013-11-21 04:26:00,37.1,35.3,30.17,SSE,156,0.0,0.0,93,0.00,,,0.00,0,Wunderground v.1.15,2013-11-21 10:26:00,
2013-11-21 04:28:00,37.0,35.2,30.17,SSE,156,0.0,0.0,93,0.00,,,0.00,0,Wunderground v.1.15,2013-11-21 10:28:00,
2013-11-21 04:33:00,37.0,35.2,30.17,SSE,156,0.0,0.0,93,0.00,,,0.00,0,Wunderground v.1.15,2013-11-21 10:33:00,
2013-11-21 04:34:00,37.0,35.2,30.17,SSE,156,0.0,0.0,93,0.00,,,0.00,0,Wunderground v.1.15,2013-11-21 10:34:00,
2013-11-21 04:36:00,37.0,35.2,30.17,SSE,156,0.0,0.0,93,0.00,,,0.00,0,Wunderground v.1.15,2013-11-21 10:36:00,
2013-11-21 04:39:00,37.0,35.2,30.16,SSE,156,0.0,0.0,93,0.00,,,0.00,0,Wunderground v.1.15,2013-11-21 10:39:00,
2013-11-21 04:40:00,37.0,35.2,30.17,SSE,156,0.0,0.0,93,0.00,,,0.00,0,Wunderground v.1.15,2013-11-21 10:40:00,
2013-11-21 04:41:00,37.0,35.2,30.17,SSE,156,0.0,0.0,93,0.00,,,0.00,0,Wunderground v.1.15,2013-11-21 10:41:00,
2013-11-21 04:42:00,37.0,35.2,30.17,SSE,156,0.0,0.0,93,0.00,,,0.00,0,Wunderground v.1.15,2013-11-21 10:42:00,
2013-11-21 04:45:00,37.0,35.2,30.16,SSE,156,0.0,0.0,93,0.00,,,0.00,0,Wunderground v.1.15,2013-11-21 10:45:00,
2013-11-21 04:47:00,37.0,35.2,30.16,SSE,156,0.0,0.0,93,0.00,,,0.00,0,Wunderground v.1.15,2013-11-21 10:47:00,
2013-11-21 04:48:00,37.0,35.2,30.16,SSE,156,0.0,0.0,93,0.00,,,0.00,0,Wunderground v.1.15,2013-11-21 10:48:00,
2013-11-21 04:49:00,37.0,35.2,30.16,SSE,156,0.0,0.0,93,0.00,,,0.00,0,Wunderground v.1.15,2013-11-21 10:49:00,
2013-11-21 04:54:00,37.0,35.2,30.17,SSE,156,0.0,0.0,93,0.00,,,0.00,0,Wunderground v.1.15,2013-11-21 10:54:00,
2013-11-21 04:55:00,37.0,35.2,30.17,SSE,156,0.0,0.0,93,0.00,,,0.00,0,Wunderground v.1.15,2013-11-21 10:55:00,
2013-11-21 04:56:00,37.0,35.2,30.17,SSE,156,0.0,0.0,93,0.00,,,0.00,0,Wunderground v.1.15,2013-11-21 10:56:00,
2013-11-21 04:59:00,37.0,35.2,30.17,SSE,156,0.0,0.0,93,0.00,,,0.00,0,Wunderground v.1.15,2013-11-21 10:59:00,
2013-11-21 05:01:00,37.0,35.2,30.17,SSE,156,0.0,0.0,93,0.00,,,0.00,0,Wunderground v.1.15,2013-11-21 11:01:00,
2013-11-21 05:02:00,37.1,35.3,30.17,SSE,156,0.0,0.0,93,0.00,,,0.00,0,Wunderground v.1.15,2013-11-21 11:02:00,
2013-11-21 05:03:00,37.0,35.2,30.17,SSE,156,0.0,0.0,93,0.00,,,0.00,0,Wunderground v.1.15,2013-11-21 11:03:00,
2013-11-21 05:04:00,37.0,35.2,30.17,SSE,156,0.0,0.0,93,0.00,,,0.00,0,Wunderground v.1.15,2013-11-21 11:04:00,
2013-11-21 05:08:00,37.0,35.2,30.17,SSE,156,0.0,0.0,93,0.00,,,0.00,0,Wunderground v.1.15,2013-11-21 11:08:00,
2013-11-21 05:09:00,37.0,35.2,30.17,SSE,156,0.0,0.0,93,0.00,,,0.00,0,Wunderground v.1.15,2013-11-21 11:09:00,
2013-11-21 05:11:00,37.0,35.2,30.18,SSE,156,0.0,0.0,93,0.00,,,0.00,0,Wunderground v.1.15,2013-11-21 11:11:00,
2013-11-21 05:12:00,37.0,35.2,30.18,SSE,156,0.0,0.0,93,0.00,,,0.00,0,Wunderground v.1.15,2013-11-21 11:12:00,
2013-11-21 05:15:00,37.0,35.2,30.17,SSE,156,0.0,0.0,93,0.00,,,0.00,0,Wunderground v.1.15,2013-11-21 11:15:00,
2013-11-21 05:17:00,37.0,35.2,30.17,SSE,156,0.0,0.0,93,0.00,,,0.00,0,Wunderground v.1.15,2013-11-21 11:17:00,
2013-11-21 05:18:00,37.0,35.2,30.18,SSE,156,0.0,0.0,93,0.00,,,0.00,0,Wunderground v.1.15,2013-11-21 11:18:00,
2013-11-21 05:22:00,37.0,35.2,30.18,SSE,156,0.0,0.0,93,0.00,,,0.00,0,Wunderground v.1.15,2013-11-21 11:22:00,
2013-11-21 05:23:00,36.9,35.1,30.18,SSE,156,0.0,0.0,93,0.00,,,0.00,0,Wunderground v.1.15,2013-11-21 11:23:00,
2013-11-21 05:24:00,36.9,35.1,30.18,SSE,156,0.0,0.0,93,0.00,,,0.00,0,Wunderground v.1.15,2013-11-21 11:24:00,
2013-11-21 05:25:00,36.9,35.1,30.18,SSE,156,0.0,0.0,93,0.00,,,0.00,0,Wunderground v.1.15,2013-11-21 11:25:00,
2013-11-21 05:29:00,36.9,35.1,30.18,SSE,156,0.0,0.0,93,0.00,,,0.00,0,Wunderground v.1.15,2013-11-21 11:29:00,
2013-11-21 05:30:00,36.9,35.1,30.18,SSE,156,0.0,0.0,93,0.00,,,0.00,0,Wunderground v.1.15,2013-11-21 11:30:00,
2013-11-21 05:31:00,36.9,35.1,30.18,SSE,156,0.0,0.0,93,0.00,,,0.00,0,Wunderground v.1.15,2013-11-21 11:31:00,
2013-11-21 05:32:00,36.9,35.1,30.18,SSE,156,0.0,0.0,93,0.00,,,0.00,0,Wunderground v.1.15,2013-11-21 11:32:00,
2013-11-21 05:36:00,36.9,35.1,30.18,SSE,156,0.0,0.0,93,0.00,,,0.00,0,Wunderground v.1.15,2013-11-21 11:36:00,
2013-11-21 05:37:00,36.9,35.1,30.18,SSE,156,0.0,0.0,93,0.00,,,0.00,0,Wunderground v.1.15,2013-11-21 11:37:00,
2013-11-21 05:39:00,37.0,35.2,30.18,SSE,156,0.0,0.0,93,0.00,,,0.00,0,Wunderground v.1.15,2013-11-21 11:39:00,
2013-11-21 05:40:00,37.0,35.2,30.18,SSE,156,0.0,0.0,93,0.00,,,0.00,0,Wunderground v.1.15,2013-11-21 11:40:00,
2013-11-21 05:42:00,37.0,35.4,30.18,SSE,156,0.0,0.0,94,0.00,,,0.00,0,Wunderground v.1.15,2013-11-21 11:42:00,
2013-11-21 05:43:00,37.0,35.4,30.18,SSE,156,0.0,0.0,94,0.00,,,0.00,0,Wunderground v.1.15,2013-11-21 11:43:00,
2013-11-21 05:45:00,37.0,35.4,30.18,SSE,156,0.0,0.0,94,0.00,,,0.00,0,Wunderground v.1.15,2013-11-21 11:45:00,
2013-11-21 05:48:00,37.0,35.4,30.18,SSE,156,0.0,0.0,94,0.00,,,0.00,0,Wunderground v.1.15,2013-11-21 11:48:00,
2013-11-21 05:50:00,37.0,35.4,30.18,SSE,156,0.0,0.0,94,0.00,,,0.00,0,Wunderground v.1.15,2013-11-21 11:50:00,
2013-11-21 05:51:00,37.0,35.4,30.18,SSE,156,0.0,0.0,94,0.00,,,0.00,0,Wunderground v.1.15,2013-11-21 11:51:00,
2013-11-21 05:55:00,37.0,35.4,30.18,SSE,156,0.0,0.0,94,0.00,,,0.00,0,Wunderground v.1.15,2013-11-21 11:55:00,
2013-11-21 05:56:00,37.0,35.4,30.18,SSE,156,0.0,0.0,94,0.00,,,0.00,0,Wunderground v.1.15,2013-11-21 11:56:00,
2013-11-21 05:57:00,37.0,35.4,30.18,SSE,156,0.0,0.0,94,0.00,,,0.00,0,Wunderground v.1.15,2013-11-21 11:57:00,
2013-11-21 05:58:00,37.0,35.4,30.18,SSE,156,0.0,0.0,94,0.00,,,0.00,0,Wunderground v.1.15,2013-11-21 11:58:00,
2013-11-21 06:02:00,37.0,35.4,30.18,SSE,156,0.0,0.0,94,0.00,,,0.00,0,Wunderground v.1.15,2013-11-21 12:02:00,
2013-11-21 06:03:00,37.0,35.4,30.18,SSE,156,0.0,0.0,94,0.00,,,0.00,0,Wunderground v.1.15,2013-11-21 12:03:00,
2013-11-21 06:04:00,37.0,35.4,30.18,SSE,156,0.0,0.0,94,0.00,,,0.00,0,Wunderground v.1.15,2013-11-21 12:04:00,
2013-11-21 06:07:00,36.9,35.3,30.18,SSE,156,0.0,0.0,94,0.00,,,0.00,0,Wunderground v.1.15,2013-11-21 12:07:00,
2013-11-21 06:09:00,36.9,35.3,30.18,SSE,156,0.0,0.0,94,0.00,,,0.00,0,Wunderground v.1.15,2013-11-21 12:09:00,
2013-11-21 06:10:00,36.9,35.3,30.18,SSE,156,0.0,0.0,94,0.00,,,0.00,0,Wunderground v.1.15,2013-11-21 12:10:00,
2013-11-21 06:13:00,36.9,35.3,30.18,SSE,156,0.0,0.0,94,0.00,,,0.00,0,Wunderground v.1.15,2013-11-21 12:13:00,
2013-11-21 06:14:00,36.9,35.3,30.18,SSE,156,0.0,0.0,94,0.00,,,0.00,0,Wunderground v.1.15,2013-11-21 12:14:00,
2013-11-21 06:15:00,36.9,35.3,30.19,SSE,156,0.0,0.0,94,0.00,,,0.00,0,Wunderground v.1.15,2013-11-21 12:15:00,
2013-11-21 06:18:00,36.9,35.3,30.19,SSE,156,0.0,0.0,94,0.00,,,0.00,0,Wunderground v.1.15,2013-11-21 12:18:00,
2013-11-21 06:21:00,36.9,35.3,30.19,SSE,156,0.0,0.0,94,0.00,,,0.00,0,Wunderground v.1.15,2013-11-21 12:21:00,
2013-11-21 06:22:00,36.9,35.3,30.19,SSE,156,0.0,0.0,94,0.00,,,0.00,0,Wunderground v.1.15,2013-11-21 12:22:00,
2013-11-21 06:23:00,36.9,35.3,30.19,SSE,156,0.0,0.0,94,0.00,,,0.00,0,Wunderground v.1.15,2013-11-21 12:23:00,
2013-11-21 06:26:00,36.9,35.3,30.19,SSE,156,0.0,0.0,94,0.00,,,0.00,0,Wunderground v.1.15,2013-11-21 12:26:00,
2013-11-21 06:27:00,36.9,35.3,30.19,SSE,156,0.0,0.0,94,0.00,,,0.00,0,Wunderground v.1.15,2013-11-21 12:27:00,
2013-11-21 06:29:00,36.9,35.3,30.19,SSE,156,0.0,0.0,94,0.00,,,0.00,0,Wunderground v.1.15,2013-11-21 12:29:00,
2013-11-21 06:30:00,36.9,35.3,30.20,SSE,156,0.0,0.0,94,0.00,,,0.00,0,Wunderground v.1.15,2013-11-21 12:30:00,
2013-11-21 06:33:00,36.9,35.3,30.20,SSE,156,0.0,0.0,94,0.00,,,0.00,0,Wunderground v.1.15,2013-11-21 12:33:00,
2013-11-21 06:34:00,36.9,35.3,30.20,SSE,156,0.0,0.0,94,0.00,,,0.00,0,Wunderground v.1.15,2013-11-21 12:34:00,
2013-11-21 06:38:00,36.9,35.3,30.20,SSE,156,0.0,0.0,94,0.00,,,0.00,0,Wunderground v.1.15,2013-11-21 12:38:00,
2013-11-21 06:39:00,36.9,35.3,30.20,SSE,156,0.0,0.0,94,0.00,,,0.00,0,Wunderground v.1.15,2013-11-21 12:39:00,
2013-11-21 06:41:00,36.9,35.3,30.20,SSE,156,0.0,0.0,94,0.00,,,0.00,0,Wunderground v.1.15,2013-11-21 12:41:00,
2013-11-21 06:42:00,36.9,35.3,30.20,SSE,156,0.0,0.0,94,0.00,,,0.00,0,Wunderground v.1.15,2013-11-21 12:42:00,
2013-11-21 06:45:00,36.8,35.2,30.20,SSE,156,0.0,0.0,94,0.00,,,0.00,0,Wunderground v.1.15,2013-11-21 12:45:00,
2013-11-21 06:46:00,36.8,35.2,30.20,SSE,156,0.0,0.0,94,0.00,,,0.00,0,Wunderground v.1.15,2013-11-21 12:46:00,
2013-11-21 06:47:00,36.8,35.2,30.20,SSE,156,0.0,0.0,94,0.00,,,0.00,0,Wunderground v.1.15,2013-11-21 12:47:00,
2013-11-21 06:48:00,36.8,35.2,30.20,SSE,156,0.0,0.0,94,0.00,,,0.00,0,Wunderground v.1.15,2013-11-21 12:48:00,
2013-11-21 06:50:00,36.8,35.2,30.20,SSE,156,0.0,0.0,94,0.00,,,0.00,0,Wunderground v.1.15,2013-11-21 12:50:00,
2013-11-21 06:52:00,36.8,35.2,30.21,SSE,156,0.0,0.0,94,0.00,,,0.00,0,Wunderground v.1.15,2013-11-21 12:52:00,
2013-11-21 06:53:00,36.8,35.2,30.21,SSE,156,0.0,0.0,94,0.00,,,0.00,0,Wunderground v.1.15,2013-11-21 12:53:00,
2013-11-21 06:55:00,36.8,35.2,30.21,SSE,156,0.0,0.0,94,0.00,,,0.00,0,Wunderground v.1.15,2013-11-21 12:55:00,
2013-11-21 06:57:00,36.8,35.2,30.20,SSE,156,0.0,0.0,94,0.00,,,0.00,0,Wunderground v.1.15,2013-11-21 12:57:00,
2013-11-21 06:58:00,36.8,35.2,30.20,SSE,156,0.0,0.0,94,0.00,,,0.00,0,Wunderground v.1.15,2013-11-21 12:58:00,
2013-11-21 07:01:00,36.8,35.2,30.21,SSE,156,0.0,0.0,94,0.00,,,0.00,0,Wunderground v.1.15,2013-11-21 13:01:00,
2013-11-21 07:02:00,36.8,35.2,30.21,SSE,156,0.0,0.0,94,0.00,,,0.00,0,Wunderground v.1.15,2013-11-21 13:02:00,
2013-11-21 07:03:00,36.8,35.2,30.21,SSE,156,0.0,0.0,94,0.00,,,0.00,0,Wunderground v.1.15,2013-11-21 13:03:00,
2013-11-21 07:05:00,36.8,35.2,30.21,SSE,156,0.0,0.0,94,0.00,,,0.00,0,Wunderground v.1.15,2013-11-21 13:05:00,
2013-11-21 07:06:00,36.8,35.2,30.21,SSE,156,0.0,0.0,94,0.00,,,0.00,0,Wunderground v.1.15,2013-11-21 13:06:00,
2013-11-21 07:08:00,36.8,35.2,30.21,SSE,156,0.0,0.0,94,0.00,,,0.00,0,Wunderground v.1.15,2013-11-21 13:08:00,
2013-11-21 07:09:00,36.8,35.2,30.21,SSE,156,0.0,0.0,94,0.00,,,0.00,0,Wunderground v.1.15,2013-11-21 13:09:00,
2013-11-21 07:10:00,36.8,35.2,30.21,SSE,156,0.0,0.0,94,0.00,,,0.00,0,Wunderground v.1.15,2013-11-21 13:10:00,
2013-11-21 07:11:00,36.8,35.2,30.21,SSE,156,0.0,0.0,94,0.00,,,0.00,0,Wunderground v.1.15,2013-11-21 13:11:00,
2013-11-21 07:13:00,36.8,35.2,30.21,SSE,156,0.0,0.0,94,0.00,,,0.00,0,Wunderground v.1.15,2013-11-21 13:13:00,
2013-11-21 07:17:00,36.8,35.2,30.21,SSE,156,0.0,0.0,94,0.00,,,0.00,5,Wunderground v.1.15,2013-11-21 13:17:00,
2013-11-21 07:18:00,36.8,35.2,30.21,SSE,156,0.0,0.0,94,0.00,,,0.00,5,Wunderground v.1.15,2013-11-21 13:18:00,
2013-11-21 07:20:00,36.8,35.2,30.21,SSE,156,0.0,0.0,94,0.00,,,0.00,5,Wunderground v.1.15,2013-11-21 13:20:00,
2013-11-21 07:22:00,36.8,35.2,30.22,SSE,156,0.0,0.0,94,0.00,,,0.00,5,Wunderground v.1.15,2013-11-21 13:22:00,
2013-11-21 07:23:00,36.8,35.2,30.22,SSE,156,0.0,0.0,94,0.00,,,0.00,5,Wunderground v.1.15,2013-11-21 13:23:00,
2013-11-21 07:24:00,36.8,35.2,30.22,SSE,156,0.0,0.0,94,0.00,,,0.00,5,Wunderground v.1.15,2013-11-21 13:24:00,
2013-11-21 07:25:00,36.8,35.2,30.22,SSE,156,0.0,0.0,94,0.00,,,0.00,5,Wunderground v.1.15,2013-11-21 13:25:00,
2013-11-21 07:27:00,36.8,35.2,30.22,SSE,156,0.0,0.0,94,0.00,,,0.00,7,Wunderground v.1.15,2013-11-21 13:27:00,
2013-11-21 07:28:00,36.8,35.2,30.22,SSE,156,0.0,0.0,94,0.00,,,0.00,7,Wunderground v.1.15,2013-11-21 13:28:00,
2013-11-21 07:30:00,36.8,35.2,30.22,SSE,156,0.0,0.0,94,0.00,,,0.00,9,Wunderground v.1.15,2013-11-21 13:30:00,
2013-11-21 07:32:00,36.8,35.2,30.22,SSE,156,0.0,0.0,94,0.00,,,0.00,11,Wunderground v.1.15,2013-11-21 13:32:00,
2013-11-21 07:36:00,36.8,35.2,30.22,SSE,156,0.0,0.0,94,0.00,,,0.00,12,Wunderground v.1.15,2013-11-21 13:36:00,
2013-11-21 07:38:00,36.8,35.2,30.22,SSE,156,0.0,0.0,94,0.00,,,0.00,12,Wunderground v.1.15,2013-11-21 13:38:00,
2013-11-21 07:41:00,36.8,35.2,30.22,SSE,156,0.0,0.0,94,0.00,,,0.00,14,Wunderground v.1.15,2013-11-21 13:41:00,
2013-11-21 07:43:00,36.8,35.2,30.22,SSE,156,0.0,0.0,94,0.00,,,0.00,18,Wunderground v.1.15,2013-11-21 13:43:00,
2013-11-21 07:44:00,36.8,35.2,30.22,SSE,156,0.0,0.0,94,0.00,,,0.00,18,Wunderground v.1.15,2013-11-21 13:44:00,
2013-11-21 07:47:00,36.9,35.3,30.22,SSE,156,0.0,0.0,94,0.00,,,0.00,21,Wunderground v.1.15,2013-11-21 13:47:00,
2013-11-21 07:49:00,36.8,35.2,30.23,SSE,156,0.0,0.0,94,0.00,,,0.00,21,Wunderground v.1.15,2013-11-21 13:49:00,
2013-11-21 07:50:00,36.9,35.3,30.23,SSE,156,0.0,0.0,94,0.00,,,0.00,21,Wunderground v.1.15,2013-11-21 13:50:00,
2013-11-21 07:52:00,36.9,35.3,30.23,SSE,156,0.0,0.0,94,0.00,,,0.00,21,Wunderground v.1.15,2013-11-21 13:52:00,
2013-11-21 07:53:00,36.9,35.3,30.23,SSE,156,0.0,0.0,94,0.00,,,0.00,19,Wunderground v.1.15,2013-11-21 13:53:00,
2013-11-21 07:54:00,36.9,35.3,30.23,SSE,156,0.0,0.0,94,0.00,,,0.00,19,Wunderground v.1.15,2013-11-21 13:54:00,
2013-11-21 07:55:00,36.9,35.3,30.22,SSE,156,0.0,0.0,94,0.00,,,0.00,19,Wunderground v.1.15,2013-11-21 13:55:00,
2013-11-21 07:56:00,36.9,35.3,30.22,SSE,156,0.0,0.0,94,0.00,,,0.00,21,Wunderground v.1.15,2013-11-21 13:56:00,
2013-11-21 07:59:00,36.9,35.3,30.22,SSE,156,0.0,0.0,94,0.00,,,0.00,23,Wunderground v.1.15,2013-11-21 13:59:00,
2013-11-21 08:00:00,36.9,35.3,30.22,SSE,156,0.0,0.0,94,0.00,,,0.00,23,Wunderground v.1.15,2013-11-21 14:00:00,
2013-11-21 08:03:00,36.9,35.3,30.22,SSE,156,0.0,0.0,94,0.00,,,0.00,19,Wunderground v.1.15,2013-11-21 14:03:00,
2013-11-21 08:04:00,37.0,35.4,30.22,SSE,156,0.0,0.0,94,0.00,,,0.00,19,Wunderground v.1.15,2013-11-21 14:04:00,
2013-11-21 08:05:00,37.0,35.4,30.22,SSE,156,0.0,0.0,94,0.00,,,0.00,19,Wunderground v.1.15,2013-11-21 14:05:00,
2013-11-21 08:06:00,37.0,35.4,30.23,SSE,156,0.0,0.0,94,0.00,,,0.00,19,Wunderground v.1.15,2013-11-21 14:06:00,
2013-11-21 08:09:00,37.0,35.4,30.23,SSE,156,0.0,0.0,94,0.00,,,0.00,18,Wunderground v.1.15,2013-11-21 14:09:00,
2013-11-21 08:12:00,37.1,35.5,30.23,SSE,156,0.0,0.0,94,0.00,,,0.00,23,Wunderground v.1.15,2013-11-21 14:12:00,
2013-11-21 08:14:00,37.1,35.5,30.23,SSE,156,0.0,0.0,94,0.00,,,0.00,26,Wunderground v.1.15,2013-11-21 14:14:00,
2013-11-21 08:16:00,37.1,35.5,30.23,SSE,156,0.0,0.0,94,0.00,,,0.00,30,Wunderground v.1.15,2013-11-21 14:16:00,
2013-11-21 08:17:00,37.1,35.5,30.23,SSE,156,0.0,0.0,94,0.00,,,0.00,30,Wunderground v.1.15,2013-11-21 14:17:00,
2013-11-21 08:18:00,37.1,35.5,30.23,SSE,156,0.0,0.0,94,0.00,,,0.00,32,Wunderground v.1.15,2013-11-21 14:18:00,
2013-11-21 08:19:00,37.1,35.5,30.23,SSE,156,0.0,0.0,94,0.00,,,0.00,32,Wunderground v.1.15,2013-11-21 14:19:00,
2013-11-21 08:21:00,37.1,35.5,30.23,SSE,156,0.0,0.0,94,0.00,,,0.00,37,Wunderground v.1.15,2013-11-21 14:21:00,
2013-11-21 08:23:00,37.2,35.6,30.22,SSE,156,0.0,0.0,94,0.00,,,0.00,40,Wunderground v.1.15,2013-11-21 14:23:00,
2013-11-21 08:24:00,37.1,35.5,30.22,SSE,156,0.0,0.0,94,0.00,,,0.00,42,Wunderground v.1.15,2013-11-21 14:24:00,
2013-11-21 08:25:00,37.1,35.5,30.23,SSE,156,0.0,0.0,94,0.00,,,0.00,42,Wunderground v.1.15,2013-11-21 14:25:00,
2013-11-21 08:27:00,37.2,35.6,30.23,SSE,156,0.0,0.0,94,0.00,,,0.00,39,Wunderground v.1.15,2013-11-21 14:27:00,
2013-11-21 08:29:00,37.2,35.6,30.23,SSE,156,0.0,0.0,94,0.00,,,0.00,33,Wunderground v.1.15,2013-11-21 14:29:00,
2013-11-21 08:33:00,37.3,35.7,30.23,SSE,156,0.0,0.0,94,0.00,,,0.00,28,Wunderground v.1.15,2013-11-21 14:33:00,
2013-11-21 08:34:00,37.3,35.7,30.23,SSE,156,0.0,0.0,94,0.00,,,0.00,28,Wunderground v.1.15,2013-11-21 14:34:00,
2013-11-21 08:36:00,37.3,35.7,30.23,SSE,156,0.0,0.0,94,0.00,,,0.00,28,Wunderground v.1.15,2013-11-21 14:36:00,
2013-11-21 08:39:00,37.3,35.7,30.23,SSE,156,0.0,0.0,94,0.00,,,0.00,32,Wunderground v.1.15,2013-11-21 14:39:00,
2013-11-21 08:41:00,37.3,35.7,30.23,SSE,156,0.0,0.0,94,0.00,,,0.00,33,Wunderground v.1.15,2013-11-21 14:41:00,
2013-11-21 08:44:00,37.3,35.7,30.23,SSE,156,0.0,0.0,94,0.00,,,0.00,39,Wunderground v.1.15,2013-11-21 14:44:00,
2013-11-21 08:46:00,37.3,35.7,30.23,SSE,156,0.0,0.0,94,0.00,,,0.00,42,Wunderground v.1.15,2013-11-21 14:46:00,
2013-11-21 08:49:00,37.3,35.7,30.24,SSE,156,0.0,0.0,94,0.00,,,0.00,49,Wunderground v.1.15,2013-11-21 14:49:00,
2013-11-21 08:50:00,37.3,35.7,30.24,SSE,156,0.0,0.0,94,0.00,,,0.00,49,Wunderground v.1.15,2013-11-21 14:50:00,
2013-11-21 08:53:00,37.3,35.7,30.24,SSE,156,0.0,1.0,94,0.00,,,0.00,58,Wunderground v.1.15,2013-11-21 14:53:00,
2013-11-21 08:54:00,37.3,35.7,30.24,SSE,156,0.0,1.0,94,0.00,,,0.00,58,Wunderground v.1.15,2013-11-21 14:54:00,
2013-11-21 08:55:00,37.3,35.7,30.23,SSE,156,0.0,1.0,94,0.00,,,0.00,58,Wunderground v.1.15,2013-11-21 14:55:00,
2013-11-21 08:57:00,37.4,35.8,30.24,SSE,156,0.0,1.0,94,0.00,,,0.00,58,Wunderground v.1.15,2013-11-21 14:57:00,
2013-11-21 08:59:00,37.4,35.8,30.24,SSE,156,0.0,1.0,94,0.00,,,0.00,62,Wunderground v.1.15,2013-11-21 14:59:00,
2013-11-21 09:00:00,37.4,35.8,30.24,SSE,156,0.0,0.0,94,0.00,,,0.00,63,Wunderground v.1.15,2013-11-21 15:00:00,
2013-11-21 09:02:00,37.4,35.8,30.24,SSE,156,0.0,0.0,94,0.00,,,0.00,62,Wunderground v.1.15,2013-11-21 15:02:00,
2013-11-21 09:04:00,37.5,35.9,30.24,SSE,156,0.0,0.0,94,0.00,,,0.00,58,Wunderground v.1.15,2013-11-21 15:04:00,
2013-11-21 09:06:00,37.6,36.3,30.24,SSE,156,0.0,1.0,95,0.00,,,0.00,58,Wunderground v.1.15,2013-11-21 15:06:00,
2013-11-21 09:07:00,37.6,36.3,30.24,SSE,156,0.0,1.0,95,0.00,,,0.00,65,Wunderground v.1.15,2013-11-21 15:07:00,
2013-11-21 09:08:00,37.7,36.4,30.24,SSE,156,0.0,1.0,95,0.00,,,0.00,70,Wunderground v.1.15,2013-11-21 15:08:00,
2013-11-21 09:09:00,37.7,36.4,30.23,SSE,156,0.0,1.0,95,0.00,,,0.00,76,Wunderground v.1.15,2013-11-21 15:09:00,
2013-11-21 09:14:00,37.9,36.6,30.23,SSE,156,0.0,0.0,95,0.00,,,0.00,77,Wunderground v.1.15,2013-11-21 15:14:00,
2013-11-21 09:15:00,38.0,36.7,30.23,SSE,156,0.0,0.0,95,0.00,,,0.00,77,Wunderground v.1.15,2013-11-21 15:15:00,
2013-11-21 09:16:00,38.0,36.4,30.23,SSE,156,0.0,0.0,94,0.00,,,0.00,70,Wunderground v.1.15,2013-11-21 15:16:00,
2013-11-21 09:17:00,38.0,36.4,30.23,SSE,156,0.0,0.0,94,0.00,,,0.00,65,Wunderground v.1.15,2013-11-21 15:17:00,
2013-11-21 09:20:00,38.1,36.5,30.23,SSE,156,0.0,0.0,94,0.00,,,0.00,70,Wunderground v.1.15,2013-11-21 15:20:00,
2013-11-21 09:21:00,38.1,36.5,30.23,SSE,156,0.0,0.0,94,0.00,,,0.00,69,Wunderground v.1.15,2013-11-21 15:21:00,
2013-11-21 09:23:00,38.1,36.5,30.23,SSE,156,0.0,0.0,94,0.00,,,0.00,69,Wunderground v.1.15,2013-11-21 15:23:00,
2013-11-21 09:25:00,38.2,36.6,30.23,SSE,156,0.0,1.0,94,0.00,,,0.00,72,Wunderground v.1.15,2013-11-21 15:25:00,
2013-11-21 09:27:00,38.2,36.6,30.23,SSE,156,0.0,1.0,94,0.00,,,0.00,74,Wunderground v.1.15,2013-11-21 15:27:00,
2013-11-21 09:28:00,38.2,36.6,30.23,SSE,156,0.0,2.0,94,0.00,,,0.00,72,Wunderground v.1.15,2013-11-21 15:28:00,
2013-11-21 09:30:00,38.2,36.6,30.23,SSE,156,1.0,1.0,94,0.00,,,0.00,74,Wunderground v.1.15,2013-11-21 15:30:00,
2013-11-21 09:31:00,38.2,36.6,30.23,SSE,156,1.0,1.0,94,0.00,,,0.00,76,Wunderground v.1.15,2013-11-21 15:31:00,
2013-11-21 09:32:00,38.2,36.6,30.24,SSE,156,1.0,2.0,94,0.00,,,0.00,70,Wunderground v.1.15,2013-11-21 15:32:00,
2013-11-21 09:37:00,38.3,36.7,30.24,SSE,156,1.0,2.0,94,0.00,,,0.00,53,Wunderground v.1.15,2013-11-21 15:37:00,
2013-11-21 09:38:00,38.3,36.7,30.24,SSE,156,1.0,2.0,94,0.00,,,0.00,47,Wunderground v.1.15,2013-11-21 15:38:00,
2013-11-21 09:39:00,38.3,36.7,30.24,SSE,156,1.0,2.0,94,0.00,,,0.00,49,Wunderground v.1.15,2013-11-21 15:39:00,
2013-11-21 09:43:00,38.2,36.6,30.24,SSE,156,0.0,1.0,94,0.00,,,0.00,54,Wunderground v.1.15,2013-11-21 15:43:00,
2013-11-21 09:44:00,38.2,36.6,30.24,SSE,156,0.0,1.0,94,0.00,,,0.00,63,Wunderground v.1.15,2013-11-21 15:44:00,
2013-11-21 09:45:00,38.2,36.6,30.24,SSE,156,0.0,1.0,94,0.00,,,0.00,69,Wunderground v.1.15,2013-11-21 15:45:00,
2013-11-21 09:47:00,38.3,36.7,30.24,SSE,156,0.0,1.0,94,0.00,,,0.00,70,Wunderground v.1.15,2013-11-21 15:47:00,
2013-11-21 09:48:00,38.2,36.6,30.24,SSE,156,0.0,1.0,94,0.00,,,0.00,70,Wunderground v.1.15,2013-11-21 15:48:00,
2013-11-21 09:50:00,38.3,36.7,30.25,SSE,156,0.0,0.0,94,0.00,,,0.00,76,Wunderground v.1.15,2013-11-21 15:50:00,
2013-11-21 09:51:00,38.3,36.7,30.25,SSE,156,0.0,0.0,94,0.00,,,0.00,74,Wunderground v.1.15,2013-11-21 15:51:00,
2013-11-21 09:52:00,38.3,36.7,30.25,SSE,156,0.0,0.0,94,0.00,,,0.00,76,Wunderground v.1.15,2013-11-21 15:52:00,
2013-11-21 09:54:00,38.3,36.7,30.25,SSE,156,0.0,0.0,94,0.00,,,0.00,56,Wunderground v.1.15,2013-11-21 15:54:00,
2013-11-21 09:55:00,38.3,36.7,30.25,SSE,156,0.0,0.0,94,0.00,,,0.00,58,Wunderground v.1.15,2013-11-21 15:55:00,
2013-11-21 09:57:00,38.4,36.8,30.25,SSE,156,0.0,0.0,94,0.00,,,0.00,69,Wunderground v.1.15,2013-11-21 15:57:00,
2013-11-21 09:58:00,38.4,36.8,30.25,SSE,156,0.0,0.0,94,0.00,,,0.00,77,Wunderground v.1.15,2013-11-21 15:58:00,
2013-11-21 10:00:00,38.5,36.9,30.25,SSE,156,0.0,0.0,94,0.00,,,0.00,67,Wunderground v.1.15,2013-11-21 16:00:00,
2013-11-21 10:03:00,38.6,37.0,30.25,SSE,156,0.0,0.0,94,0.00,,,0.00,40,Wunderground v.1.15,2013-11-21 16:03:00,
2013-11-21 10:04:00,38.6,37.0,30.25,SSE,156,0.0,0.0,94,0.00,,,0.00,37,Wunderground v.1.15,2013-11-21 16:04:00,
2013-11-21 10:06:00,38.7,37.1,30.25,SSE,156,0.0,0.0,94,0.00,,,0.00,37,Wunderground v.1.15,2013-11-21 16:06:00,
2013-11-21 10:07:00,38.6,37.0,30.26,SSE,156,0.0,0.0,94,0.00,,,0.00,37,Wunderground v.1.15,2013-11-21 16:07:00,
2013-11-21 10:08:00,38.7,37.1,30.26,SSE,156,0.0,0.0,94,0.00,,,0.00,37,Wunderground v.1.15,2013-11-21 16:08:00,
2013-11-21 10:09:00,38.7,37.1,30.26,SSE,156,0.0,0.0,94,0.00,,,0.00,35,Wunderground v.1.15,2013-11-21 16:09:00,
2013-11-21 10:12:00,38.7,37.1,30.26,SSE,156,0.0,0.0,94,0.00,,,0.00,46,Wunderground v.1.15,2013-11-21 16:12:00,
2013-11-21 10:13:00,38.7,37.1,30.26,SSE,156,0.0,1.0,94,0.00,,,0.00,47,Wunderground v.1.15,2013-11-21 16:13:00,
2013-11-21 10:16:00,38.7,37.1,30.26,SSE,156,0.0,1.0,94,0.00,,,0.00,56,Wunderground v.1.15,2013-11-21 16:16:00,
2013-11-21 10:17:00,38.7,37.1,30.26,SSE,156,0.0,1.0,94,0.00,,,0.00,62,Wunderground v.1.15,2013-11-21 16:17:00,
2013-11-21 10:18:00,38.7,37.1,30.26,SSE,156,0.0,2.0,94,0.00,,,0.00,74,Wunderground v.1.15,2013-11-21 16:18:00,
2013-11-21 10:19:00,38.6,37.0,30.26,SSE,156,0.0,2.0,94,0.00,,,0.00,79,Wunderground v.1.15,2013-11-21 16:19:00,
2013-11-21 10:22:00,38.7,37.1,30.26,SSE,156,1.0,1.0,94,0.00,,,0.00,84,Wunderground v.1.15,2013-11-21 16:22:00,
2013-11-21 10:23:00,38.7,37.1,30.26,SSE,156,1.0,1.0,94,0.00,,,0.00,86,Wunderground v.1.15,2013-11-21 16:23:00,
2013-11-21 10:24:00,38.8,37.2,30.27,SSE,156,1.0,1.0,94,0.00,,,0.00,88,Wunderground v.1.15,2013-11-21 16:24:00,
2013-11-21 10:25:00,38.8,37.2,30.27,SSE,156,1.0,1.0,94,0.00,,,0.00,88,Wunderground v.1.15,2013-11-21 16:25:00,
2013-11-21 10:27:00,38.9,37.3,30.27,SSE,156,0.0,1.0,94,0.00,,,0.00,91,Wunderground v.1.15,2013-11-21 16:27:00,
2013-11-21 10:29:00,38.9,37.3,30.27,SSE,156,0.0,1.0,94,0.00,,,0.00,93,Wunderground v.1.15,2013-11-21 16:29:00,
2013-11-21 10:30:00,39.0,37.4,30.27,SSE,156,0.0,0.0,94,0.00,,,0.00,98,Wunderground v.1.15,2013-11-21 16:30:00,
2013-11-21 10:33:00,39.1,37.5,30.27,SSE,156,0.0,2.0,94,0.00,,,0.00,116,Wunderground v.1.15,2013-11-21 16:33:00,
2013-11-21 10:34:00,39.1,37.5,30.26,SSE,156,0.0,2.0,94,0.00,,,0.00,116,Wunderground v.1.15,2013-11-21 16:34:00,
2013-11-21 10:35:00,39.1,37.5,30.27,SSE,156,0.0,2.0,94,0.00,,,0.00,114,Wunderground v.1.15,2013-11-21 16:35:00,
2013-11-21 10:37:00,39.1,37.5,30.27,SSE,156,0.0,2.0,94,0.00,,,0.00,97,Wunderground v.1.15,2013-11-21 16:37:00,
2013-11-21 10:38:00,39.1,37.5,30.27,SSE,156,0.0,2.0,94,0.00,,,0.00,97,Wunderground v.1.15,2013-11-21 16:38:00,
2013-11-21 10:40:00,39.1,37.5,30.27,SSE,157,1.0,1.0,94,0.00,,,0.00,100,Wunderground v.1.15,2013-11-21 16:40:00,
2013-11-21 10:41:00,39.1,37.2,30.27,SSE,157,1.0,2.0,93,0.00,,,0.00,100,Wunderground v.1.15,2013-11-21 16:41:00,
2013-11-21 10:42:00,39.1,37.2,30.27,SW,219,2.0,3.0,93,0.00,,,0.00,91,Wunderground v.1.15,2013-11-21 16:42:00,
2013-11-21 10:45:00,39.1,37.2,30.27,SW,226,2.0,4.0,93,0.00,,,0.00,86,Wunderground v.1.15,2013-11-21 16:45:00,
2013-11-21 10:47:00,39.1,37.2,30.26,SW,228,3.0,4.0,93,0.00,,,0.00,91,Wunderground v.1.15,2013-11-21 16:47:00,
2013-11-21 10:48:00,39.1,37.2,30.26,SW,228,3.0,4.0,93,0.00,,,0.00,95,Wunderground v.1.15,2013-11-21 16:48:00,
2013-11-21 10:49:00,39.1,37.2,30.26,SW,228,3.0,4.0,93,0.00,,,0.00,97,Wunderground v.1.15,2013-11-21 16:49:00,
2013-11-21 10:50:00,39.1,37.2,30.26,SW,228,3.0,3.0,93,0.00,,,0.00,97,Wunderground v.1.15,2013-11-21 16:50:00,
2013-11-21 10:52:00,39.2,37.3,30.26,SW,229,2.0,3.0,93,0.00,,,0.00,98,Wunderground v.1.15,2013-11-21 16:52:00,
2013-11-21 10:53:00,39.2,37.3,30.26,SW,229,2.0,3.0,93,0.00,,,0.00,105,Wunderground v.1.15,2013-11-21 16:53:00,
2013-11-21 10:55:00,39.2,37.3,30.26,SW,229,2.0,3.0,93,0.00,,,0.00,125,Wunderground v.1.15,2013-11-21 16:55:00,
2013-11-21 10:56:00,39.3,37.4,30.26,SW,229,2.0,3.0,93,0.00,,,0.00,134,Wunderground v.1.15,2013-11-21 16:56:00,
2013-11-21 11:00:00,39.3,37.4,30.25,SW,232,2.0,2.0,93,0.00,,,0.00,178,Wunderground v.1.15,2013-11-21 17:00:00,
2013-11-21 11:01:00,39.4,37.5,30.25,SW,232,1.0,2.0,93,0.00,,,0.00,188,Wunderground v.1.15,2013-11-21 17:01:00,
2013-11-21 11:02:00,39.5,37.6,30.24,SW,232,1.0,2.0,93,0.00,,,0.00,197,Wunderground v.1.15,2013-11-21 17:02:00,
2013-11-21 11:03:00,39.6,37.7,30.24,SW,232,1.0,2.0,93,0.00,,,0.00,195,Wunderground v.1.15,2013-11-21 17:03:00,
2013-11-21 11:04:00,39.6,37.7,30.24,SW,232,1.0,2.0,93,0.00,,,0.00,195,Wunderground v.1.15,2013-11-21 17:04:00,
2013-11-21 11:07:00,39.8,37.9,30.24,SW,232,1.0,2.0,93,0.00,,,0.00,179,Wunderground v.1.15,2013-11-21 17:07:00,
2013-11-21 11:09:00,40.0,38.1,30.24,SW,232,0.0,2.0,93,0.00,,,0.00,178,Wunderground v.1.15,2013-11-21 17:09:00,
2013-11-21 11:12:00,40.2,38.3,30.24,SW,232,0.0,0.0,93,0.00,,,0.00,165,Wunderground v.1.15,2013-11-21 17:12:00,
2013-11-21 11:15:00,40.4,38.3,30.24,SW,235,0.0,3.0,92,0.00,,,0.00,176,Wunderground v.1.15,2013-11-21 17:15:00,
2013-11-21 11:16:00,40.4,38.5,30.24,WSW,244,0.0,3.0,93,0.00,,,0.00,174,Wunderground v.1.15,2013-11-21 17:16:00,
2013-11-21 11:17:00,40.4,38.3,30.24,WSW,244,1.0,3.0,92,0.00,,,0.00,172,Wunderground v.1.15,2013-11-21 17:17:00,
2013-11-21 11:21:00,40.5,38.4,30.24,NNW,328,1.0,3.0,92,0.00,,,0.00,156,Wunderground v.1.15,2013-11-21 17:21:00,
2013-11-21 11:22:00,40.5,38.4,30.23,NNW,328,1.0,3.0,92,0.00,,,0.00,158,Wunderground v.1.15,2013-11-21 17:22:00,
2013-11-21 11:23:00,40.5,38.1,30.24,NNW,328,1.0,3.0,91,0.00,,,0.00,165,Wunderground v.1.15,2013-11-21 17:23:00,
2013-11-21 11:26:00,40.5,38.1,30.24,NNW,328,1.0,3.0,91,0.00,,,0.00,167,Wunderground v.1.15,2013-11-21 17:26:00,
2013-11-21 11:27:00,40.5,38.1,30.24,WNW,290,1.0,3.0,91,0.00,,,0.00,160,Wunderground v.1.15,2013-11-21 17:27:00,
2013-11-21 11:30:00,40.5,38.1,30.23,WNW,290,1.0,1.0,91,0.00,,,0.00,167,Wunderground v.1.15,2013-11-21 17:30:00,
2013-11-21 11:32:00,40.5,38.1,30.23,WNW,294,1.0,3.0,91,0.00,,,0.00,156,Wunderground v.1.15,2013-11-21 17:32:00,
2013-11-21 11:33:00,40.5,38.1,30.23,NNW,338,1.0,4.0,91,0.00,,,0.00,141,Wunderground v.1.15,2013-11-21 17:33:00,
2013-11-21 11:35:00,40.4,37.7,30.24,NNW,339,2.0,4.0,90,0.00,,,0.00,128,Wunderground v.1.15,2013-11-21 17:35:00,
2013-11-21 11:36:00,40.4,37.7,30.24,NNW,339,2.0,4.0,90,0.00,,,0.00,123,Wunderground v.1.15,2013-11-21 17:36:00,
2013-11-21 11:37:00,40.4,37.7,30.24,NNW,339,2.0,4.0,90,0.00,,,0.00,116,Wunderground v.1.15,2013-11-21 17:37:00,
2013-11-21 11:40:00,40.5,37.8,30.24,NNW,339,1.0,1.0,90,0.00,,,0.00,91,Wunderground v.1.15,2013-11-21 17:40:00,
2013-11-21 11:41:00,40.5,37.8,30.24,NNW,339,1.0,1.0,90,0.00,,,0.00,88,Wunderground v.1.15,2013-11-21 17:41:00,
2013-11-21 11:43:00,40.5,37.5,30.24,NNW,331,2.0,4.0,89,0.00,,,0.00,90,Wunderground v.1.15,2013-11-21 17:43:00,
2013-11-21 11:44:00,40.5,37.5,30.24,NNW,331,1.0,4.0,89,0.00,,,0.00,90,Wunderground v.1.15,2013-11-21 17:44:00,
2013-11-21 11:47:00,40.3,37.0,30.24,NNW,331,2.0,4.0,88,0.00,,,0.00,88,Wunderground v.1.15,2013-11-21 17:47:00,
2013-11-21 11:49:00,40.3,37.0,30.24,NNW,331,2.0,4.0,88,0.00,,,0.00,83,Wunderground v.1.15,2013-11-21 17:49:00,
2013-11-21 11:51:00,40.3,37.0,30.24,NNW,331,2.0,2.0,88,0.00,,,0.00,84,Wunderground v.1.15,2013-11-21 17:51:00,
2013-11-21 11:54:00,40.4,37.1,30.24,NNW,331,1.0,2.0,88,0.00,,,0.00,86,Wunderground v.1.15,2013-11-21 17:54:00,
2013-11-21 11:55:00,40.4,37.1,30.24,NNW,331,1.0,2.0,88,0.00,,,0.00,84,Wunderground v.1.15,2013-11-21 17:55:00,
2013-11-21 11:56:00,40.4,37.1,30.24,NNW,331,1.0,2.0,88,0.00,,,0.00,81,Wunderground v.1.15,2013-11-21 17:56:00,
2013-11-21 12:01:00,40.4,36.8,30.24,NNW,331,0.0,0.0,87,0.00,,,0.00,69,Wunderground v.1.15,2013-11-21 18:01:00,
2013-11-21 12:03:00,40.5,36.9,30.24,NNW,331,0.0,1.0,87,0.00,,,0.00,67,Wunderground v.1.15,2013-11-21 18:03:00,
2013-11-21 12:04:00,40.5,36.9,30.24,NNW,330,0.0,2.0,87,0.00,,,0.00,67,Wunderground v.1.15,2013-11-21 18:04:00,
2013-11-21 12:07:00,40.5,36.9,30.24,NNW,330,1.0,2.0,87,0.00,,,0.00,69,Wunderground v.1.15,2013-11-21 18:07:00,
2013-11-21 12:08:00,40.5,36.9,30.24,NNW,330,1.0,2.0,87,0.00,,,0.00,69,Wunderground v.1.15,2013-11-21 18:08:00,
2013-11-21 12:09:00,40.5,36.9,30.24,NNW,330,1.0,2.0,87,0.00,,,0.00,69,Wunderground v.1.15,2013-11-21 18:09:00,
2013-11-21 12:10:00,40.5,36.9,30.24,NNW,330,1.0,1.0,87,0.00,,,0.00,69,Wunderground v.1.15,2013-11-21 18:10:00,
2013-11-21 12:11:00,40.5,36.6,30.24,NNW,330,1.0,1.0,86,0.00,,,0.00,70,Wunderground v.1.15,2013-11-21 18:11:00,
2013-11-21 12:16:00,40.4,36.5,30.24,NNW,329,2.0,3.0,86,0.00,,,0.00,83,Wunderground v.1.15,2013-11-21 18:16:00,
2013-11-21 12:17:00,40.4,36.5,30.24,NNW,329,1.0,3.0,86,0.00,,,0.00,86,Wunderground v.1.15,2013-11-21 18:17:00,
2013-11-21 12:18:00,40.4,36.5,30.24,NNW,329,1.0,3.0,86,0.00,,,0.00,90,Wunderground v.1.15,2013-11-21 18:18:00,
2013-11-21 12:21:00,40.4,36.2,30.24,NNW,329,1.0,3.0,85,0.00,,,0.00,102,Wunderground v.1.15,2013-11-21 18:21:00,
2013-11-21 12:22:00,40.3,36.1,30.24,NNW,329,2.0,3.0,85,0.00,,,0.00,104,Wunderground v.1.15,2013-11-21 18:22:00,
2013-11-21 12:24:00,40.3,36.1,30.24,NNW,329,2.0,3.0,85,0.00,,,0.00,107,Wunderground v.1.15,2013-11-21 18:24:00,
2013-11-21 12:27:00,40.3,36.1,30.24,NNW,329,2.0,4.0,85,0.00,,,0.00,86,Wunderground v.1.15,2013-11-21 18:27:00,
2013-11-21 12:29:00,40.2,36.1,30.24,NNW,328,2.0,4.0,85,0.00,,,0.00,79,Wunderground v.1.15,2013-11-21 18:29:00,
2013-11-21 12:32:00,40.2,36.1,30.24,NNW,328,2.0,2.0,85,0.00,,,0.00,76,Wunderground v.1.15,2013-11-21 18:32:00,
2013-11-21 12:33:00,40.2,36.1,30.24,NNW,328,2.0,2.0,85,0.00,,,0.00,74,Wunderground v.1.15,2013-11-21 18:33:00,
2013-11-21 12:35:00,40.2,36.1,30.24,NNW,328,2.0,2.0,85,0.00,,,0.00,74,Wunderground v.1.15,2013-11-21 18:35:00,
2013-11-21 12:38:00,40.2,36.1,30.24,NNW,327,2.0,4.0,85,0.00,,,0.00,76,Wunderground v.1.15,2013-11-21 18:38:00,
2013-11-21 12:40:00,40.2,36.1,30.24,NNW,327,2.0,2.0,85,0.00,,,0.00,67,Wunderground v.1.15,2013-11-21 18:40:00,
2013-11-21 12:41:00,40.2,36.1,30.24,NNW,327,2.0,2.0,85,0.00,,,0.00,63,Wunderground v.1.15,2013-11-21 18:41:00,
2013-11-21 12:42:00,40.2,36.1,30.24,NNW,327,2.0,4.0,85,0.00,,,0.00,63,Wunderground v.1.15,2013-11-21 18:42:00,
2013-11-21 12:44:00,40.1,36.0,30.24,NNW,332,2.0,4.0,85,0.00,,,0.00,74,Wunderground v.1.15,2013-11-21 18:44:00,
2013-11-21 12:47:00,40.0,35.9,30.25,NNW,332,2.0,4.0,85,0.00,,,0.00,81,Wunderground v.1.15,2013-11-21 18:47:00,
2013-11-21 12:49:00,40.0,35.9,30.24,NNW,332,2.0,4.0,85,0.00,,,0.00,90,Wunderground v.1.15,2013-11-21 18:49:00,
2013-11-21 12:51:00,40.0,35.9,30.25,NNW,332,3.0,3.0,85,0.00,,,0.00,79,Wunderground v.1.15,2013-11-21 18:51:00,
2013-11-21 12:53:00,40.0,35.9,30.25,NNW,332,2.0,3.0,85,0.00,,,0.00,70,Wunderground v.1.15,2013-11-21 18:53:00,
2013-11-21 12:55:00,40.0,35.9,30.25,NNW,332,2.0,3.0,85,0.00,,,0.00,67,Wunderground v.1.15,2013-11-21 18:55:00,
2013-11-21 12:58:00,40.1,36.0,30.25,NNW,332,1.0,3.0,85,0.00,,,0.00,62,Wunderground v.1.15,2013-11-21 18:58:00,
2013-11-21 13:00:00,40.1,36.0,30.25,NNW,332,1.0,1.0,85,0.00,,,0.00,62,Wunderground v.1.15,2013-11-21 19:00:00,
2013-11-21 13:02:00,40.1,36.0,30.25,NNW,332,0.0,2.0,85,0.00,,,0.00,62,Wunderground v.1.15,2013-11-21 19:02:00,
2013-11-21 13:05:00,40.1,36.0,30.25,NNW,332,0.0,2.0,85,0.00,,,0.00,60,Wunderground v.1.15,2013-11-21 19:05:00,
2013-11-21 13:06:00,40.2,36.1,30.25,NNW,332,0.0,2.0,85,0.00,,,0.00,60,Wunderground v.1.15,2013-11-21 19:06:00,
2013-11-21 13:07:00,40.1,36.0,30.25,NNW,332,0.0,2.0,85,0.00,,,0.00,56,Wunderground v.1.15,2013-11-21 19:07:00,
2013-11-21 13:09:00,40.2,36.1,30.25,NNW,332,0.0,2.0,85,0.00,,,0.00,46,Wunderground v.1.15,2013-11-21 19:09:00,
2013-11-21 13:10:00,40.2,36.1,30.25,NNW,332,1.0,1.0,85,0.00,,,0.00,40,Wunderground v.1.15,2013-11-21 19:10:00,
2013-11-21 13:11:00,40.2,36.1,30.25,NNW,332,1.0,1.0,85,0.00,,,0.00,47,Wunderground v.1.15,2013-11-21 19:11:00,
2013-11-21 13:15:00,40.3,36.1,30.25,NNW,332,1.0,3.0,85,0.00,,,0.00,54,Wunderground v.1.15,2013-11-21 19:15:00,
2013-11-21 13:16:00,40.2,36.1,30.25,NNW,332,1.0,3.0,85,0.00,,,0.00,40,Wunderground v.1.15,2013-11-21 19:16:00,
2013-11-21 13:19:00,40.2,36.1,30.25,NNW,332,1.0,3.0,85,0.00,,,0.00,49,Wunderground v.1.15,2013-11-21 19:19:00,
2013-11-21 13:21:00,40.2,36.1,30.25,NNW,332,1.0,1.0,85,0.00,,,0.00,54,Wunderground v.1.15,2013-11-21 19:21:00,
2013-11-21 13:22:00,40.2,36.1,30.25,NNW,332,1.0,2.0,85,0.00,,,0.00,54,Wunderground v.1.15,2013-11-21 19:22:00,
2013-11-21 13:23:00,40.2,36.1,30.25,NNW,332,1.0,2.0,85,0.00,,,0.00,51,Wunderground v.1.15,2013-11-21 19:23:00,
2013-11-21 13:24:00,40.2,36.1,30.25,NNW,332,1.0,2.0,85,0.00,,,0.00,51,Wunderground v.1.15,2013-11-21 19:24:00,
2013-11-21 13:26:00,40.1,36.0,30.25,NNW,332,1.0,2.0,85,0.00,,,0.00,51,Wunderground v.1.15,2013-11-21 19:26:00,
2013-11-21 13:27:00,40.2,36.1,30.25,NNW,331,1.0,3.0,85,0.00,,,0.00,49,Wunderground v.1.15,2013-11-21 19:27:00,
2013-11-21 13:28:00,40.1,36.0,30.25,NNW,329,1.0,3.0,85,0.00,,,0.00,47,Wunderground v.1.15,2013-11-21 19:28:00,
2013-11-21 13:29:00,40.2,36.1,30.25,NNW,329,1.0,3.0,85,0.00,,,0.00,42,Wunderground v.1.15,2013-11-21 19:29:00,
2013-11-21 13:32:00,40.1,36.0,30.25,NNW,328,2.0,4.0,85,0.00,,,0.00,37,Wunderground v.1.15,2013-11-21 19:32:00,
2013-11-21 13:36:00,40.0,35.9,30.25,NW,326,2.0,4.0,85,0.00,,,0.00,32,Wunderground v.1.15,2013-11-21 19:36:00,
2013-11-21 13:37:00,40.0,35.9,30.25,NW,326,2.0,4.0,85,0.00,,,0.00,32,Wunderground v.1.15,2013-11-21 19:37:00,
2013-11-21 13:38:00,40.0,35.9,30.25,NW,326,2.0,4.0,85,0.00,,,0.00,30,Wunderground v.1.15,2013-11-21 19:38:00,
2013-11-21 13:39:00,40.0,35.9,30.25,NW,326,2.0,4.0,85,0.00,,,0.00,28,Wunderground v.1.15,2013-11-21 19:39:00,
2013-11-21 13:40:00,40.0,35.9,30.25,NW,326,2.0,2.0,85,0.00,,,0.00,26,Wunderground v.1.15,2013-11-21 19:40:00,
2013-11-21 13:41:00,40.0,35.9,30.25,NW,326,2.0,2.0,85,0.00,,,0.00,26,Wunderground v.1.15,2013-11-21 19:41:00,
2013-11-21 13:45:00,39.9,35.8,30.25,NW,326,2.0,3.0,85,0.00,,,0.00,25,Wunderground v.1.15,2013-11-21 19:45:00,
2013-11-21 13:46:00,39.9,35.8,30.25,NW,326,2.0,3.0,85,0.00,,,0.00,25,Wunderground v.1.15,2013-11-21 19:46:00,
2013-11-21 13:48:00,39.8,35.7,30.25,NW,326,2.0,3.0,85,0.00,,,0.00,23,Wunderground v.1.15,2013-11-21 19:48:00,
2013-11-21 13:49:00,39.8,35.7,30.25,NW,326,2.0,3.0,85,0.00,,,0.00,23,Wunderground v.1.15,2013-11-21 19:49:00,
2013-11-21 13:50:00,39.8,35.7,30.25,NW,326,1.0,5.0,85,0.00,,,0.00,25,Wunderground v.1.15,2013-11-21 19:50:00,
2013-11-21 13:51:00,39.8,35.7,30.25,NW,316,2.0,5.0,85,0.00,,,0.00,25,Wunderground v.1.15,2013-11-21 19:51:00,
2013-11-21 13:54:00,39.6,35.2,30.25,WNW,300,3.0,5.0,84,0.00,,,0.00,25,Wunderground v.1.15,2013-11-21 19:54:00,
2013-11-21 13:55:00,39.6,35.5,30.25,WNW,303,3.0,5.0,85,0.00,,,0.00,26,Wunderground v.1.15,2013-11-21 19:55:00,
2013-11-21 13:56:00,39.6,35.5,30.25,WNW,302,3.0,5.0,85,0.00,,,0.00,26,Wunderground v.1.15,2013-11-21 19:56:00,
2013-11-21 13:58:00,39.5,35.4,30.25,WNW,302,3.0,5.0,85,0.00,,,0.00,26,Wunderground v.1.15,2013-11-21 19:58:00,
2013-11-21 13:59:00,39.5,35.4,30.25,WNW,302,3.0,5.0,85,0.00,,,0.00,26,Wunderground v.1.15,2013-11-21 19:59:00,
2013-11-21 14:00:00,39.5,35.4,30.25,WNW,303,4.0,4.0,85,0.00,,,0.00,26,Wunderground v.1.15,2013-11-21 20:00:00,
2013-11-21 14:02:00,39.4,35.3,30.25,WNW,303,3.0,4.0,85,0.00,,,0.00,28,Wunderground v.1.15,2013-11-21 20:02:00,
2013-11-21 14:04:00,39.5,35.4,30.25,WNW,303,2.0,4.0,85,0.00,,,0.00,28,Wunderground v.1.15,2013-11-21 20:04:00,
2013-11-21 14:05:00,39.4,35.3,30.25,WNW,303,2.0,4.0,85,0.00,,,0.00,28,Wunderground v.1.15,2013-11-21 20:05:00,
2013-11-21 14:09:00,39.4,35.3,30.25,NW,306,2.0,4.0,85,0.00,,,0.00,33,Wunderground v.1.15,2013-11-21 20:09:00,
2013-11-21 14:11:00,39.4,35.3,30.25,NW,308,2.0,2.0,85,0.00,,,0.00,33,Wunderground v.1.15,2013-11-21 20:11:00,
2013-11-21 14:12:00,39.4,35.3,30.25,NW,308,2.0,4.0,85,0.00,,,0.00,32,Wunderground v.1.15,2013-11-21 20:12:00,
2013-11-21 14:14:00,39.4,35.3,30.25,NW,308,2.0,4.0,85,0.00,,,0.00,30,Wunderground v.1.15,2013-11-21 20:14:00,
2013-11-21 14:17:00,39.4,35.3,30.25,NW,308,2.0,4.0,85,0.00,,,0.00,28,Wunderground v.1.15,2013-11-21 20:17:00,
2013-11-21 14:20:00,39.3,35.5,30.25,NW,308,2.0,2.0,86,0.00,,,0.00,28,Wunderground v.1.15,2013-11-21 20:20:00,
2013-11-21 14:22:00,39.3,35.2,30.25,NW,311,2.0,5.0,85,0.00,,,0.00,26,Wunderground v.1.15,2013-11-21 20:22:00,
2013-11-21 14:23:00,39.3,35.2,30.25,NW,311,2.0,5.0,85,0.00,,,0.00,23,Wunderground v.1.15,2013-11-21 20:23:00,
2013-11-21 14:25:00,39.3,35.2,30.25,NW,311,2.0,5.0,85,0.00,,,0.00,21,Wunderground v.1.15,2013-11-21 20:25:00,
2013-11-21 14:27:00,39.3,35.2,30.25,NW,311,2.0,5.0,85,0.00,,,0.00,21,Wunderground v.1.15,2013-11-21 20:27:00,
2013-11-21 14:29:00,39.3,35.2,30.25,NW,311,2.0,5.0,85,0.00,,,0.00,23,Wunderground v.1.15,2013-11-21 20:29:00,
2013-11-21 14:31:00,39.3,35.2,30.25,NW,311,2.0,3.0,85,0.00,,,0.00,25,Wunderground v.1.15,2013-11-21 20:31:00,
2013-11-21 14:32:00,39.3,35.2,30.25,NW,311,2.0,3.0,85,0.00,,,0.00,25,Wunderground v.1.15,2013-11-21 20:32:00,
2013-11-21 14:33:00,39.3,35.2,30.25,NW,311,2.0,3.0,85,0.00,,,0.00,26,Wunderground v.1.15,2013-11-21 20:33:00,
2013-11-21 14:35:00,39.3,35.2,30.25,NW,311,1.0,3.0,85,0.00,,,0.00,28,Wunderground v.1.15,2013-11-21 20:35:00,
2013-11-21 14:37:00,39.3,35.2,30.25,NW,311,1.0,3.0,85,0.00,,,0.00,26,Wunderground v.1.15,2013-11-21 20:37:00,
2013-11-21 14:40:00,39.3,35.2,30.25,NW,311,1.0,2.0,85,0.00,,,0.00,26,Wunderground v.1.15,2013-11-21 20:40:00,
2013-11-21 14:41:00,39.2,35.1,30.25,WNW,297,1.0,4.0,85,0.00,,,0.00,28,Wunderground v.1.15,2013-11-21 20:41:00,
2013-11-21 14:42:00,39.2,35.1,30.25,WNW,301,2.0,6.0,85,0.00,,,0.00,28,Wunderground v.1.15,2013-11-21 20:42:00,
2013-11-21 14:44:00,39.2,35.1,30.25,WNW,298,2.0,6.0,85,0.00,,,0.00,26,Wunderground v.1.15,2013-11-21 20:44:00,
2013-11-21 14:47:00,39.2,35.1,30.25,WNW,298,3.0,6.0,85,0.00,,,0.00,26,Wunderground v.1.15,2013-11-21 20:47:00,
2013-11-21 14:49:00,39.2,35.1,30.25,WNW,298,3.0,6.0,85,0.00,,,0.00,26,Wunderground v.1.15,2013-11-21 20:49:00,
2013-11-21 14:50:00,39.2,35.1,30.26,WNW,298,3.0,3.0,85,0.00,,,0.00,26,Wunderground v.1.15,2013-11-21 20:50:00,
2013-11-21 14:51:00,39.2,35.1,30.26,WNW,298,2.0,3.0,85,0.00,,,0.00,26,Wunderground v.1.15,2013-11-21 20:51:00,
2013-11-21 14:52:00,39.2,35.1,30.26,WNW,298,2.0,3.0,85,0.00,,,0.00,25,Wunderground v.1.15,2013-11-21 20:52:00,
2013-11-21 14:55:00,39.2,35.1,30.26,WNW,298,1.0,3.0,85,0.00,,,0.00,21,Wunderground v.1.15,2013-11-21 20:55:00,
2013-11-21 14:56:00,39.2,35.1,30.26,WNW,298,1.0,3.0,85,0.00,,,0.00,19,Wunderground v.1.15,2013-11-21 20:56:00,
2013-11-21 14:59:00,39.3,35.2,30.26,WNW,298,1.0,3.0,85,0.00,,,0.00,18,Wunderground v.1.15,2013-11-21 20:59:00,
2013-11-21 15:01:00,39.2,35.1,30.26,WNW,298,1.0,1.0,85,0.00,,,0.00,16,Wunderground v.1.15,2013-11-21 21:01:00,
2013-11-21 15:03:00,39.3,35.2,30.27,WNW,298,1.0,1.0,85,0.00,,,0.00,14,Wunderground v.1.15,2013-11-21 21:03:00,
2013-11-21 15:04:00,39.3,35.2,30.27,WNW,298,1.0,2.0,85,0.00,,,0.00,14,Wunderground v.1.15,2013-11-21 21:04:00,
2013-11-21 15:05:00,39.3,35.2,30.27,WNW,298,1.0,2.0,85,0.00,,,0.00,14,Wunderground v.1.15,2013-11-21 21:05:00,
2013-11-21 15:06:00,39.3,35.2,30.27,WNW,298,1.0,2.0,85,0.00,,,0.00,14,Wunderground v.1.15,2013-11-21 21:06:00,
2013-11-21 15:11:00,39.3,35.2,30.27,WNW,298,0.0,1.0,85,0.00,,,0.00,14,Wunderground v.1.15,2013-11-21 21:11:00,
2013-11-21 15:12:00,39.3,35.2,30.27,WNW,298,0.0,1.0,85,0.00,,,0.00,12,Wunderground v.1.15,2013-11-21 21:12:00,
2013-11-21 15:13:00,39.3,35.2,30.27,WNW,298,0.0,1.0,85,0.00,,,0.00,14,Wunderground v.1.15,2013-11-21 21:13:00,
2013-11-21 15:16:00,39.3,35.2,30.27,WNW,298,0.0,1.0,85,0.00,,,0.00,14,Wunderground v.1.15,2013-11-21 21:16:00,
2013-11-21 15:17:00,39.3,35.2,30.27,WNW,297,1.0,4.0,85,0.00,,,0.00,16,Wunderground v.1.15,2013-11-21 21:17:00,
2013-11-21 15:18:00,39.3,35.2,30.27,WNW,297,1.0,4.0,85,0.00,,,0.00,18,Wunderground v.1.15,2013-11-21 21:18:00,
2013-11-21 15:22:00,39.3,35.2,30.27,WNW,298,2.0,2.0,85,0.00,,,0.00,21,Wunderground v.1.15,2013-11-21 21:22:00,
2013-11-21 15:24:00,39.3,35.2,30.28,WNW,298,2.0,3.0,85,0.00,,,0.00,23,Wunderground v.1.15,2013-11-21 21:24:00,
2013-11-21 15:26:00,39.3,35.2,30.28,WNW,298,2.0,3.0,85,0.00,,,0.00,21,Wunderground v.1.15,2013-11-21 21:26:00,
2013-11-21 15:28:00,39.3,35.2,30.28,WNW,298,2.0,3.0,85,0.00,,,0.00,18,Wunderground v.1.15,2013-11-21 21:28:00,
2013-11-21 15:30:00,39.3,35.2,30.28,WNW,298,2.0,3.0,85,0.00,,,0.00,14,Wunderground v.1.15,2013-11-21 21:30:00,
2013-11-21 15:31:00,39.3,35.2,30.28,WNW,298,2.0,3.0,85,0.00,,,0.00,14,Wunderground v.1.15,2013-11-21 21:31:00,
2013-11-21 15:33:00,39.3,35.2,30.28,WNW,298,2.0,3.0,85,0.00,,,0.00,12,Wunderground v.1.15,2013-11-21 21:33:00,
2013-11-21 15:36:00,39.3,35.2,30.28,WNW,300,1.0,3.0,85,0.00,,,0.00,12,Wunderground v.1.15,2013-11-21 21:36:00,
2013-11-21 15:37:00,39.3,35.2,30.28,WNW,300,1.0,3.0,85,0.00,,,0.00,12,Wunderground v.1.15,2013-11-21 21:37:00,
2013-11-21 15:38:00,39.3,35.2,30.28,WNW,300,2.0,3.0,85,0.00,,,0.00,14,Wunderground v.1.15,2013-11-21 21:38:00,
2013-11-21 15:39:00,39.3,35.2,30.28,NW,309,2.0,6.0,85,0.00,,,0.00,14,Wunderground v.1.15,2013-11-21 21:39:00,
2013-11-21 15:41:00,39.3,35.2,30.28,NNW,327,2.0,3.0,85,0.00,,,0.00,12,Wunderground v.1.15,2013-11-21 21:41:00,
2013-11-21 15:44:00,39.2,35.1,30.28,NNW,327,3.0,3.0,85,0.00,,,0.00,11,Wunderground v.1.15,2013-11-21 21:44:00,
2013-11-21 15:45:00,39.2,35.1,30.28,NNW,327,3.0,3.0,85,0.00,,,0.00,11,Wunderground v.1.15,2013-11-21 21:45:00,
2013-11-21 15:46:00,39.2,35.1,30.28,NNW,327,2.0,3.0,85,0.00,,,0.00,11,Wunderground v.1.15,2013-11-21 21:46:00,
2013-11-21 15:47:00,39.2,35.1,30.28,NNW,327,2.0,3.0,85,0.00,,,0.00,11,Wunderground v.1.15,2013-11-21 21:47:00,
2013-11-21 15:50:00,39.2,35.1,30.28,NNW,327,1.0,1.0,85,0.00,,,0.00,9,Wunderground v.1.15,2013-11-21 21:50:00,
2013-11-21 15:51:00,39.2,35.1,30.28,NNW,327,1.0,1.0,85,0.00,,,0.00,7,Wunderground v.1.15,2013-11-21 21:51:00,
2013-11-21 15:54:00,39.2,35.4,30.28,NNW,327,1.0,1.0,86,0.00,,,0.00,7,Wunderground v.1.15,2013-11-21 21:54:00,
2013-11-21 15:55:00,39.2,35.4,30.28,NNW,327,0.0,1.0,86,0.00,,,0.00,5,Wunderground v.1.15,2013-11-21 21:55:00,
2013-11-21 15:56:00,39.2,35.4,30.29,NW,326,0.0,4.0,86,0.00,,,0.00,5,Wunderground v.1.15,2013-11-21 21:56:00,
2013-11-21 15:57:00,39.2,35.4,30.29,NW,326,1.0,4.0,86,0.00,,,0.00,5,Wunderground v.1.15,2013-11-21 21:57:00,
2013-11-21 15:58:00,39.2,35.4,30.29,NW,326,1.0,4.0,86,0.00,,,0.00,0,Wunderground v.1.15,2013-11-21 21:58:00,
2013-11-21 16:00:00,39.2,35.4,30.29,NW,326,1.0,2.0,86,0.00,,,0.00,0,Wunderground v.1.15,2013-11-21 22:00:00,
2013-11-21 16:01:00,39.2,35.4,30.29,NW,326,1.0,2.0,86,0.00,,,0.00,0,Wunderground v.1.15,2013-11-21 22:01:00,
2013-11-21 16:02:00,39.2,35.4,30.29,NW,326,1.0,2.0,86,0.00,,,0.00,0,Wunderground v.1.15,2013-11-21 22:02:00,
2013-11-21 16:06:00,39.2,35.4,30.29,NW,326,1.0,2.0,86,0.00,,,0.00,0,Wunderground v.1.15,2013-11-21 22:06:00,
2013-11-21 16:07:00,39.2,35.4,30.29,NW,326,1.0,2.0,86,0.00,,,0.00,0,Wunderground v.1.15,2013-11-21 22:07:00,
2013-11-21 16:08:00,39.2,35.4,30.29,NW,326,1.0,2.0,86,0.00,,,0.00,0,Wunderground v.1.15,2013-11-21 22:08:00,
2013-11-21 16:10:00,39.2,35.4,30.29,NW,326,1.0,2.0,86,0.00,,,0.00,0,Wunderground v.1.15,2013-11-21 22:10:00,
2013-11-21 16:12:00,39.2,35.4,30.29,NW,326,1.0,2.0,86,0.00,,,0.00,0,Wunderground v.1.15,2013-11-21 22:12:00,
2013-11-21 16:13:00,39.2,35.4,30.29,NW,326,1.0,2.0,86,0.00,,,0.00,0,Wunderground v.1.15,2013-11-21 22:13:00,
2013-11-21 16:14:00,39.2,35.4,30.29,NW,326,1.0,3.0,86,0.00,,,0.00,0,Wunderground v.1.15,2013-11-21 22:14:00,
2013-11-21 16:15:00,39.2,35.4,30.29,NW,326,1.0,3.0,86,0.00,,,0.00,0,Wunderground v.1.15,2013-11-21 22:15:00,
2013-11-21 16:18:00,39.1,35.3,30.29,NW,326,1.0,3.0,86,0.00,,,0.00,0,Wunderground v.1.15,2013-11-21 22:18:00,
2013-11-21 16:19:00,39.1,35.3,30.28,NW,326,1.0,3.0,86,0.00,,,0.00,0,Wunderground v.1.15,2013-11-21 22:19:00,
2013-11-21 16:20:00,39.1,35.3,30.29,NW,326,1.0,1.0,86,0.00,,,0.00,0,Wunderground v.1.15,2013-11-21 22:20:00,
2013-11-21 16:23:00,39.1,35.3,30.29,NW,326,1.0,2.0,86,0.00,,,0.00,0,Wunderground v.1.15,2013-11-21 22:23:00,
2013-11-21 16:24:00,39.1,35.3,30.29,NW,326,1.0,2.0,86,0.00,,,0.00,0,Wunderground v.1.15,2013-11-21 22:24:00,
2013-11-21 16:25:00,39.1,35.3,30.29,NW,326,1.0,2.0,86,0.00,,,0.00,0,Wunderground v.1.15,2013-11-21 22:25:00,
2013-11-21 16:27:00,39.1,35.3,30.29,NW,326,0.0,2.0,86,0.00,,,0.00,0,Wunderground v.1.15,2013-11-21 22:27:00,
2013-11-21 16:30:00,39.1,35.3,30.29,NW,326,1.0,1.0,86,0.00,,,0.00,0,Wunderground v.1.15,2013-11-21 22:30:00,
2013-11-21 16:31:00,39.1,35.3,30.29,NW,326,1.0,1.0,86,0.00,,,0.00,0,Wunderground v.1.15,2013-11-21 22:31:00,
2013-11-21 16:32:00,39.1,35.3,30.29,NW,326,1.0,2.0,86,0.00,,,0.00,0,Wunderground v.1.15,2013-11-21 22:32:00,
2013-11-21 16:33:00,39.1,35.3,30.29,NW,326,1.0,2.0,86,0.00,,,0.00,0,Wunderground v.1.15,2013-11-21 22:33:00,
2013-11-21 16:34:00,39.1,35.3,30.29,NW,326,1.0,2.0,86,0.00,,,0.00,0,Wunderground v.1.15,2013-11-21 22:34:00,
2013-11-21 16:37:00,39.0,35.2,30.29,NW,309,2.0,6.0,86,0.00,,,0.00,0,Wunderground v.1.15,2013-11-21 22:37:00,
2013-11-21 16:38:00,39.0,35.2,30.29,North,349,2.0,6.0,86,0.00,,,0.00,0,Wunderground v.1.15,2013-11-21 22:38:00,
2013-11-21 16:39:00,39.0,35.2,30.29,North,349,2.0,6.0,86,0.00,,,0.00,0,Wunderground v.1.15,2013-11-21 22:39:00,
2013-11-21 16:40:00,39.0,35.2,30.29,North,349,2.0,2.0,86,0.00,,,0.00,0,Wunderground v.1.15,2013-11-21 22:40:00,
2013-11-21 16:41:00,39.0,35.2,30.29,North,349,2.0,2.0,86,0.00,,,0.00,0,Wunderground v.1.15,2013-11-21 22:41:00,
2013-11-21 16:44:00,38.9,35.1,30.29,NW,309,3.0,5.0,86,0.00,,,0.00,0,Wunderground v.1.15,2013-11-21 22:44:00,
2013-11-21 16:45:00,38.9,35.1,30.29,NW,317,3.0,5.0,86,0.00,,,0.00,0,Wunderground v.1.15,2013-11-21 22:45:00,
2013-11-21 16:46:00,38.9,35.1,30.29,NNW,335,3.0,5.0,86,0.00,,,0.00,0,Wunderground v.1.15,2013-11-21 22:46:00,
2013-11-21 16:47:00,38.9,35.1,30.29,NNW,337,3.0,5.0,86,0.00,,,0.00,0,Wunderground v.1.15,2013-11-21 22:47:00,
2013-11-21 16:52:00,38.8,35.0,30.29,NW,317,4.0,5.0,86,0.00,,,0.00,0,Wunderground v.1.15,2013-11-21 22:52:00,
2013-11-21 16:54:00,38.8,35.0,30.29,NW,317,3.0,5.0,86,0.00,,,0.00,0,Wunderground v.1.15,2013-11-21 22:54:00,
2013-11-21 16:57:00,38.8,35.0,30.29,NW,316,2.0,5.0,86,0.00,,,0.00,0,Wunderground v.1.15,2013-11-21 22:57:00,
2013-11-21 16:58:00,38.8,35.0,30.29,NW,316,2.0,5.0,86,0.00,,,0.00,0,Wunderground v.1.15,2013-11-21 22:58:00,
2013-11-21 16:59:00,38.8,35.0,30.29,NW,316,2.0,5.0,86,0.00,,,0.00,0,Wunderground v.1.15,2013-11-21 22:59:00,
2013-11-21 17:01:00,38.8,35.0,30.29,NNW,327,1.0,3.0,86,0.00,,,0.00,0,Wunderground v.1.15,2013-11-21 23:01:00,
2013-11-21 17:02:00,38.8,35.0,30.29,NNW,342,1.0,3.0,86,0.00,,,0.00,0,Wunderground v.1.15,2013-11-21 23:02:00,
2013-11-21 17:04:00,38.7,35.2,30.29,NNW,338,1.0,3.0,87,0.00,,,0.00,0,Wunderground v.1.15,2013-11-21 23:04:00,
2013-11-21 17:05:00,38.7,35.2,30.29,WNW,299,2.0,5.0,87,0.00,,,0.00,0,Wunderground v.1.15,2013-11-21 23:05:00,
2013-11-21 17:06:00,38.7,35.2,30.29,WNW,303,2.0,5.0,87,0.00,,,0.00,0,Wunderground v.1.15,2013-11-21 23:06:00,
2013-11-21 17:11:00,38.6,34.8,30.29,NNW,342,3.0,4.0,86,0.00,,,0.00,0,Wunderground v.1.15,2013-11-21 23:11:00,
2013-11-21 17:13:00,38.6,35.1,30.30,NW,317,3.0,8.0,87,0.00,,,0.00,0,Wunderground v.1.15,2013-11-21 23:13:00,
2013-11-21 17:14:00,38.6,35.1,30.30,WNW,284,3.0,8.0,87,0.00,,,0.00,0,Wunderground v.1.15,2013-11-21 23:14:00,
2013-11-21 17:15:00,38.6,35.1,30.30,NW,308,3.0,8.0,87,0.00,,,0.00,0,Wunderground v.1.15,2013-11-21 23:15:00,
2013-11-21 17:18:00,38.5,35.0,30.30,NNW,329,4.0,8.0,87,0.00,,,0.00,0,Wunderground v.1.15,2013-11-21 23:18:00,
2013-11-21 17:19:00,38.5,35.0,30.30,NNW,329,3.0,8.0,87,0.00,,,0.00,0,Wunderground v.1.15,2013-11-21 23:19:00,
2013-11-21 17:20:00,38.5,35.0,30.30,NNW,329,3.0,3.0,87,0.00,,,0.00,0,Wunderground v.1.15,2013-11-21 23:20:00,
2013-11-21 17:21:00,38.5,35.0,30.30,WNW,300,3.0,5.0,87,0.00,,,0.00,0,Wunderground v.1.15,2013-11-21 23:21:00,
2013-11-21 17:23:00,38.5,35.0,30.30,NNW,327,3.0,5.0,87,0.00,,,0.00,0,Wunderground v.1.15,2013-11-21 23:23:00,
2013-11-21 17:24:00,38.5,35.0,30.30,NNW,327,3.0,5.0,87,0.00,,,0.00,0,Wunderground v.1.15,2013-11-21 23:24:00,
2013-11-21 17:27:00,38.4,34.9,30.30,NW,321,3.0,5.0,87,0.00,,,0.00,0,Wunderground v.1.15,2013-11-21 23:27:00,
2013-11-21 17:28:00,38.4,34.9,30.30,NNW,327,3.0,5.0,87,0.00,,,0.00,0,Wunderground v.1.15,2013-11-21 23:28:00,
2013-11-21 17:30:00,38.4,34.9,30.30,NNW,332,3.0,3.0,87,0.00,,,0.00,0,Wunderground v.1.15,2013-11-21 23:30:00,
2013-11-21 17:32:00,38.4,34.9,30.30,NNW,331,3.0,5.0,87,0.00,,,0.00,0,Wunderground v.1.15,2013-11-21 23:32:00,
2013-11-21 17:33:00,38.4,34.9,30.30,NNW,331,3.0,5.0,87,0.00,,,0.00,0,Wunderground v.1.15,2013-11-21 23:33:00,
2013-11-21 17:34:00,38.4,34.9,30.30,NNW,336,3.0,5.0,87,0.00,,,0.00,0,Wunderground v.1.15,2013-11-21 23:34:00,
2013-11-21 17:37:00,38.3,34.8,30.30,NW,325,4.0,5.0,87,0.00,,,0.00,0,Wunderground v.1.15,2013-11-21 23:37:00,
2013-11-21 17:39:00,38.3,34.8,30.30,NW,306,4.0,5.0,87,0.00,,,0.00,0,Wunderground v.1.15,2013-11-21 23:39:00,
2013-11-21 17:42:00,38.2,34.7,30.30,North,5,5.0,6.0,87,0.00,,,0.00,0,Wunderground v.1.15,2013-11-21 23:42:00,
2013-11-21 17:44:00,38.2,34.7,30.30,NW,311,5.0,6.0,87,0.00,,,0.00,0,Wunderground v.1.15,2013-11-21 23:44:00,
2013-11-21 17:47:00,38.2,34.7,30.30,NW,310,4.0,6.0,87,0.00,,,0.00,0,Wunderground v.1.15,2013-11-21 23:47:00,
2013-11-21 17:51:00,38.2,34.7,30.31,NW,310,2.0,2.0,87,0.00,,,0.00,0,Wunderground v.1.15,2013-11-21 23:51:00,
2013-11-21 17:52:00,38.1,34.6,30.31,NW,315,2.0,2.0,87,0.00,,,0.00,0,Wunderground v.1.15,2013-11-21 23:52:00,
2013-11-21 17:56:00,38.1,34.6,30.31,NNW,330,2.0,4.0,87,0.00,,,0.00,0,Wunderground v.1.15,2013-11-21 23:56:00,
2013-11-21 17:57:00,38.1,34.6,30.31,NNW,330,2.0,4.0,87,0.00,,,0.00,0,Wunderground v.1.15,2013-11-21 23:57:00,
2013-11-21 17:58:00,38.1,34.6,30.31,NNW,330,2.0,4.0,87,0.00,,,0.00,0,Wunderground v.1.15,2013-11-21 23:58:00,
2013-11-21 17:59:00,38.1,34.6,30.31,NNW,330,2.0,4.0,87,0.00,,,0.00,0,Wunderground v.1.15,2013-11-21 23:59:00,
2013-11-21 18:00:00,38.1,34.6,30.31,NNW,330,2.0,3.0,87,0.00,,,0.00,0,Wunderground v.1.15,2013-11-22 00:00:00,
2013-11-21 18:02:00,38.1,34.6,30.31,North,5,2.0,8.0,87,0.00,,,0.00,0,Wunderground v.1.15,2013-11-22 00:02:00,
2013-11-21 18:03:00,38.0,34.5,30.31,North,360,2.0,8.0,87,0.00,,,0.00,0,Wunderground v.1.15,2013-11-22 00:03:00,
2013-11-21 18:04:00,38.0,34.5,30.31,NNW,327,3.0,8.0,87,0.00,,,0.00,0,Wunderground v.1.15,2013-11-22 00:04:00,
2013-11-21 18:07:00,38.0,34.5,30.31,NW,321,4.0,9.0,87,0.00,,,0.00,0,Wunderground v.1.15,2013-11-22 00:07:00,
2013-11-21 18:08:00,37.9,34.4,30.31,North,351,4.0,9.0,87,0.00,,,0.00,0,Wunderground v.1.15,2013-11-22 00:08:00,
2013-11-21 18:09:00,37.9,34.4,30.31,NNW,343,4.0,9.0,87,0.00,,,0.00,0,Wunderground v.1.15,2013-11-22 00:09:00,
2013-11-21 18:12:00,37.9,34.7,30.31,NNW,344,5.0,5.0,88,0.00,,,0.00,0,Wunderground v.1.15,2013-11-22 00:12:00,
2013-11-21 18:13:00,37.9,34.7,30.31,North,10,5.0,5.0,88,0.00,,,0.00,0,Wunderground v.1.15,2013-11-22 00:13:00,
2013-11-21 18:14:00,37.9,34.7,30.31,North,5,5.0,5.0,88,0.00,,,0.00,0,Wunderground v.1.15,2013-11-22 00:14:00,
2013-11-21 18:16:00,37.9,34.7,30.32,NNW,348,5.0,7.0,88,0.00,,,0.00,0,Wunderground v.1.15,2013-11-22 00:16:00,
2013-11-21 18:18:00,37.8,34.6,30.32,NNW,339,4.0,7.0,88,0.00,,,0.00,0,Wunderground v.1.15,2013-11-22 00:18:00,
2013-11-21 18:19:00,37.8,34.6,30.32,NNW,339,4.0,7.0,88,0.00,,,0.00,0,Wunderground v.1.15,2013-11-22 00:19:00,
2013-11-21 18:21:00,37.8,34.6,30.32,NNW,334,4.0,4.0,88,0.00,,,0.00,0,Wunderground v.1.15,2013-11-22 00:21:00,
2013-11-21 18:22:00,37.8,34.6,30.32,NW,315,4.0,4.0,88,0.00,,,0.00,0,Wunderground v.1.15,2013-11-22 00:22:00,
2013-11-21 18:23:00,37.8,34.6,30.32,NW,322,3.0,4.0,88,0.00,,,0.00,0,Wunderground v.1.15,2013-11-22 00:23:00,
2013-11-21 18:24:00,37.8,34.6,30.32,NW,316,3.0,4.0,88,0.00,,,0.00,0,Wunderground v.1.15,2013-11-22 00:24:00,
2013-11-21 18:25:00,37.8,34.6,30.32,NW,319,3.0,4.0,88,0.00,,,0.00,0,Wunderground v.1.15,2013-11-22 00:25:00,
2013-11-21 18:26:00,37.8,34.6,30.32,NW,320,3.0,4.0,88,0.00,,,0.00,0,Wunderground v.1.15,2013-11-22 00:26:00,
2013-11-21 18:29:00,37.8,34.6,30.32,North,360,3.0,4.0,88,0.00,,,0.00,0,Wunderground v.1.15,2013-11-22 00:29:00,
2013-11-21 18:30:00,37.8,34.6,30.32,North,360,2.0,2.0,88,0.00,,,0.00,0,Wunderground v.1.15,2013-11-22 00:30:00,
2013-11-21 18:34:00,37.7,34.5,30.32,North,355,2.0,4.0,88,0.00,,,0.00,0,Wunderground v.1.15,2013-11-22 00:34:00,
2013-11-21 18:35:00,37.7,34.5,30.32,NNW,340,2.0,4.0,88,0.00,,,0.00,0,Wunderground v.1.15,2013-11-22 00:35:00,
2013-11-21 18:36:00,37.7,34.5,30.32,NNW,331,2.0,6.0,88,0.00,,,0.00,0,Wunderground v.1.15,2013-11-22 00:36:00,
2013-11-21 18:37:00,37.7,34.5,30.32,NNW,346,2.0,6.0,88,0.00,,,0.00,0,Wunderground v.1.15,2013-11-22 00:37:00,
2013-11-21 18:39:00,37.7,34.5,30.32,WNW,302,3.0,6.0,88,0.00,,,0.00,0,Wunderground v.1.15,2013-11-22 00:39:00,
2013-11-21 18:40:00,37.7,34.5,30.32,NW,319,3.0,3.0,88,0.00,,,0.00,0,Wunderground v.1.15,2013-11-22 00:40:00,
2013-11-21 18:41:00,37.7,34.5,30.32,NW,322,3.0,3.0,88,0.00,,,0.00,0,Wunderground v.1.15,2013-11-22 00:41:00,
2013-11-21 18:42:00,37.7,34.5,30.32,WNW,284,3.0,4.0,88,0.00,,,0.00,0,Wunderground v.1.15,2013-11-22 00:42:00,
2013-11-21 18:45:00,37.6,34.4,30.32,NNW,346,3.0,4.0,88,0.00,,,0.00,0,Wunderground v.1.15,2013-11-22 00:45:00,
2013-11-21 18:46:00,37.6,34.4,30.32,NNW,340,4.0,4.0,88,0.00,,,0.00,0,Wunderground v.1.15,2013-11-22 00:46:00,
2013-11-21 18:47:00,37.6,34.4,30.32,NNW,336,3.0,4.0,88,0.00,,,0.00,0,Wunderground v.1.15,2013-11-22 00:47:00,
2013-11-21 18:48:00,37.6,34.4,30.32,NNW,336,3.0,4.0,88,0.00,,,0.00,0,Wunderground v.1.15,2013-11-22 00:48:00,
2013-11-21 18:50:00,37.6,34.4,30.32,NNW,344,3.0,5.0,88,0.00,,,0.00,0,Wunderground v.1.15,2013-11-22 00:50:00,
2013-11-21 18:51:00,37.6,34.4,30.32,NNW,330,3.0,5.0,88,0.00,,,0.00,0,Wunderground v.1.15,2013-11-22 00:51:00,
2013-11-21 18:53:00,37.6,34.4,30.32,NNW,340,3.0,5.0,88,0.00,,,0.00,0,Wunderground v.1.15,2013-11-22 00:53:00,
2013-11-21 18:54:00,37.6,34.7,30.32,WNW,286,3.0,7.0,89,0.00,,,0.00,0,Wunderground v.1.15,2013-11-22 00:54:00,
2013-11-21 18:55:00,37.5,34.3,30.32,NW,323,3.0,7.0,88,0.00,,,0.00,0,Wunderground v.1.15,2013-11-22 00:55:00,
2013-11-21 18:56:00,37.5,34.3,30.32,NW,320,3.0,7.0,88,0.00,,,0.00,0,Wunderground v.1.15,2013-11-22 00:56:00,
2013-11-21 18:59:00,37.6,34.7,30.32,WNW,294,3.0,7.0,89,0.00,,,0.00,0,Wunderground v.1.15,2013-11-22 00:59:00,
2013-11-21 19:00:00,37.5,34.3,30.32,NW,308,3.0,4.0,88,0.00,,,0.00,0,Wunderground v.1.15,2013-11-22 01:00:00,
2013-11-21 19:02:00,37.6,34.4,30.32,NW,305,3.0,4.0,88,0.00,,,0.00,0,Wunderground v.1.15,2013-11-22 01:02:00,
2013-11-21 19:04:00,37.5,34.6,30.32,NW,312,3.0,6.0,89,0.00,,,0.00,0,Wunderground v.1.15,2013-11-22 01:04:00,
2013-11-21 19:05:00,37.5,34.3,30.32,WNW,294,3.0,6.0,88,0.00,,,0.00,0,Wunderground v.1.15,2013-11-22 01:05:00,
2013-11-21 19:06:00,37.6,34.4,30.33,WNW,294,3.0,6.0,88,0.00,,,0.00,0,Wunderground v.1.15,2013-11-22 01:06:00,
2013-11-21 19:08:00,37.5,34.3,30.33,WNW,302,4.0,6.0,88,0.00,,,0.00,0,Wunderground v.1.15,2013-11-22 01:08:00,
2013-11-21 19:09:00,37.5,34.3,30.32,WNW,298,3.0,6.0,88,0.00,,,0.00,0,Wunderground v.1.15,2013-11-22 01:09:00,
2013-11-21 19:11:00,37.5,34.3,30.33,WNW,299,3.0,4.0,88,0.00,,,0.00,0,Wunderground v.1.15,2013-11-22 01:11:00,
2013-11-21 19:13:00,37.5,34.3,30.33,West,271,3.0,5.0,88,0.00,,,0.00,0,Wunderground v.1.15,2013-11-22 01:13:00,
2013-11-21 19:14:00,37.5,34.3,30.33,NW,310,3.0,5.0,88,0.00,,,0.00,0,Wunderground v.1.15,2013-11-22 01:14:00,
2013-11-21 19:15:00,37.5,34.3,30.33,NW,317,3.0,5.0,88,0.00,,,0.00,0,Wunderground v.1.15,2013-11-22 01:15:00,
2013-11-21 19:16:00,37.5,34.3,30.33,WNW,290,3.0,5.0,88,0.00,,,0.00,0,Wunderground v.1.15,2013-11-22 01:16:00,
2013-11-21 19:18:00,37.5,34.3,30.33,NNW,344,3.0,6.0,88,0.00,,,0.00,0,Wunderground v.1.15,2013-11-22 01:18:00,
2013-11-21 19:20:00,37.5,34.3,30.33,NNW,329,3.0,3.0,88,0.00,,,0.00,0,Wunderground v.1.15,2013-11-22 01:20:00,
2013-11-21 19:22:00,37.5,34.3,30.33,NW,311,3.0,4.0,88,0.00,,,0.00,0,Wunderground v.1.15,2013-11-22 01:22:00,
2013-11-21 19:23:00,37.5,34.3,30.34,NW,304,3.0,4.0,88,0.00,,,0.00,0,Wunderground v.1.15,2013-11-22 01:23:00,
2013-11-21 19:26:00,37.5,34.3,30.34,NW,309,4.0,8.0,88,0.00,,,0.00,0,Wunderground v.1.15,2013-11-22 01:26:00,
2013-11-21 19:27:00,37.5,34.3,30.34,WNW,300,4.0,8.0,88,0.00,,,0.00,0,Wunderground v.1.15,2013-11-22 01:27:00,
2013-11-21 19:28:00,37.5,34.3,30.34,WNW,284,4.0,8.0,88,0.00,,,0.00,0,Wunderground v.1.15,2013-11-22 01:28:00,
2013-11-21 19:30:00,37.5,34.3,30.34,NNW,332,3.0,3.0,88,0.00,,,0.00,0,Wunderground v.1.15,2013-11-22 01:30:00,
2013-11-21 19:31:00,37.5,34.3,30.34,WNW,290,3.0,5.0,88,0.00,,,0.00,0,Wunderground v.1.15,2013-11-22 01:31:00,
2013-11-21 19:34:00,37.5,34.3,30.34,NW,317,4.0,6.0,88,0.00,,,0.00,0,Wunderground v.1.15,2013-11-22 01:34:00,
2013-11-21 19:35:00,37.4,34.5,30.34,NNE,19,4.0,6.0,89,0.00,,,0.00,0,Wunderground v.1.15,2013-11-22 01:35:00,
2013-11-21 19:36:00,37.4,34.5,30.34,NW,319,4.0,6.0,89,0.00,,,0.00,0,Wunderground v.1.15,2013-11-22 01:36:00,
2013-11-21 19:40:00,37.4,34.5,30.34,WNW,283,4.0,4.0,89,0.00,,,0.00,0,Wunderground v.1.15,2013-11-22 01:40:00,
2013-11-21 19:41:00,37.4,34.5,30.34,NW,319,4.0,4.0,89,0.00,,,0.00,0,Wunderground v.1.15,2013-11-22 01:41:00,
2013-11-21 19:44:00,37.3,34.4,30.35,WNW,300,3.0,4.0,89,0.00,,,0.00,0,Wunderground v.1.15,2013-11-22 01:44:00,
2013-11-21 19:49:00,37.3,34.4,30.35,NW,305,4.0,6.0,89,0.00,,,0.00,0,Wunderground v.1.15,2013-11-22 01:49:00,
2013-11-21 19:50:00,37.3,34.4,30.35,NNW,330,4.0,4.0,89,0.00,,,0.00,0,Wunderground v.1.15,2013-11-22 01:50:00,
2013-11-21 19:53:00,37.3,34.4,30.35,NNW,333,4.0,4.0,89,0.00,,,0.00,0,Wunderground v.1.15,2013-11-22 01:53:00,
2013-11-21 19:54:00,37.2,34.3,30.35,NW,304,4.0,4.0,89,0.00,,,0.00,0,Wunderground v.1.15,2013-11-22 01:54:00,
2013-11-21 19:55:00,37.2,34.3,30.35,NW,325,4.0,6.0,89,0.00,,,0.00,0,Wunderground v.1.15,2013-11-22 01:55:00,
2013-11-21 19:56:00,37.3,34.4,30.35,NW,322,4.0,6.0,89,0.00,,,0.00,0,Wunderground v.1.15,2013-11-22 01:56:00,
2013-11-21 20:00:00,37.2,34.3,30.35,NW,323,3.0,3.0,89,0.00,,,0.00,0,Wunderground v.1.15,2013-11-22 02:00:00,
2013-11-21 20:02:00,37.2,34.3,30.35,NW,320,3.0,9.0,89,0.00,,,0.00,0,Wunderground v.1.15,2013-11-22 02:02:00,
2013-11-21 20:03:00,37.2,34.3,30.35,NW,320,3.0,9.0,89,0.00,,,0.00,0,Wunderground v.1.15,2013-11-22 02:03:00,
2013-11-21 20:05:00,37.2,34.5,30.35,NW,321,3.0,9.0,90,0.00,,,0.00,0,Wunderground v.1.15,2013-11-22 02:05:00,
2013-11-21 20:06:00,37.1,34.4,30.35,NW,321,2.0,9.0,90,0.00,,,0.00,0,Wunderground v.1.15,2013-11-22 02:06:00,
2013-11-21 20:07:00,37.2,34.5,30.35,NW,319,2.0,9.0,90,0.00,,,0.00,0,Wunderground v.1.15,2013-11-22 02:07:00,
2013-11-21 20:08:00,37.1,34.4,30.35,NNW,341,3.0,9.0,90,0.00,,,0.00,0,Wunderground v.1.15,2013-11-22 02:08:00,
2013-11-21 20:09:00,37.1,34.4,30.35,West,281,3.0,9.0,90,0.00,,,0.00,0,Wunderground v.1.15,2013-11-22 02:09:00,
2013-11-21 20:10:00,37.1,34.4,30.35,WNW,300,3.0,11.0,90,0.00,,,0.00,0,Wunderground v.1.15,2013-11-22 02:10:00,
2013-11-21 20:13:00,37.0,34.3,30.35,NW,309,3.0,11.0,90,0.00,,,0.00,0,Wunderground v.1.15,2013-11-22 02:13:00,
2013-11-21 20:14:00,37.0,34.3,30.36,West,279,3.0,11.0,90,0.00,,,0.00,0,Wunderground v.1.15,2013-11-22 02:14:00,
2013-11-21 20:15:00,36.9,34.2,30.36,NW,309,4.0,11.0,90,0.00,,,0.00,0,Wunderground v.1.15,2013-11-22 02:15:00,
2013-11-21 20:16:00,36.8,34.1,30.36,WNW,289,4.0,11.0,90,0.00,,,0.00,0,Wunderground v.1.15,2013-11-22 02:16:00,
2013-11-21 20:17:00,36.8,34.1,30.36,WNW,298,4.0,11.0,90,0.00,,,0.00,0,Wunderground v.1.15,2013-11-22 02:17:00,
2013-11-21 20:21:00,36.5,33.8,30.36,NW,306,4.0,5.0,90,0.00,,,0.00,0,Wunderground v.1.15,2013-11-22 02:21:00,
2013-11-21 20:22:00,36.5,33.8,30.36,NW,312,4.0,5.0,90,0.00,,,0.00,0,Wunderground v.1.15,2013-11-22 02:22:00,
2013-11-21 20:23:00,36.4,33.7,30.36,WNW,289,4.0,5.0,90,0.00,,,0.00,0,Wunderground v.1.15,2013-11-22 02:23:00,
2013-11-21 20:27:00,36.2,33.5,30.36,NW,304,4.0,8.0,90,0.00,,,0.00,0,Wunderground v.1.15,2013-11-22 02:27:00,
2013-11-21 20:29:00,36.1,33.5,30.36,WNW,288,4.0,8.0,90,0.00,,,0.00,0,Wunderground v.1.15,2013-11-22 02:29:00,
2013-11-21 20:31:00,35.9,33.3,30.36,WNW,297,4.0,5.0,90,0.00,,,0.00,0,Wunderground v.1.15,2013-11-22 02:31:00,
2013-11-21 20:32:00,35.9,33.3,30.36,NNW,347,4.0,5.0,90,0.00,,,0.00,0,Wunderground v.1.15,2013-11-22 02:32:00,
2013-11-21 20:34:00,35.8,33.2,30.36,WNW,285,5.0,6.0,90,0.00,,,0.00,0,Wunderground v.1.15,2013-11-22 02:34:00,
2013-11-21 20:36:00,35.6,33.0,30.36,WNW,287,5.0,7.0,90,0.00,,,0.00,0,Wunderground v.1.15,2013-11-22 02:36:00,
2013-11-21 20:39:00,35.4,32.8,30.36,West,263,5.0,7.0,90,0.00,,,0.00,0,Wunderground v.1.15,2013-11-22 02:39:00,
2013-11-21 20:41:00,35.3,32.9,30.36,NW,325,6.0,6.0,91,0.00,,,0.00,0,Wunderground v.1.15,2013-11-22 02:41:00,
2013-11-21 20:42:00,35.3,32.9,30.36,NW,323,5.0,6.0,91,0.00,,,0.00,0,Wunderground v.1.15,2013-11-22 02:42:00,
2013-11-21 20:44:00,35.2,32.8,30.36,NW,321,5.0,6.0,91,0.00,,,0.00,0,Wunderground v.1.15,2013-11-22 02:44:00,
2013-11-21 20:45:00,35.1,32.7,30.36,North,355,5.0,6.0,91,0.00,,,0.00,0,Wunderground v.1.15,2013-11-22 02:45:00,
2013-11-21 20:47:00,35.0,32.6,30.36,WNW,290,5.0,7.0,91,0.00,,,0.00,0,Wunderground v.1.15,2013-11-22 02:47:00,
2013-11-21 20:48:00,34.9,32.5,30.36,NW,317,5.0,7.0,91,0.00,,,0.00,0,Wunderground v.1.15,2013-11-22 02:48:00,
2013-11-21 20:49:00,34.9,32.5,30.36,NNW,328,5.0,7.0,91,0.00,,,0.00,0,Wunderground v.1.15,2013-11-22 02:49:00,
2013-11-21 20:52:00,34.8,32.4,30.36,NNW,331,5.0,5.0,91,0.00,,,0.00,0,Wunderground v.1.15,2013-11-22 02:52:00,
2013-11-21 20:53:00,34.7,32.3,30.36,NNW,337,5.0,5.0,91,0.00,,,0.00,0,Wunderground v.1.15,2013-11-22 02:53:00,
2013-11-21 20:55:00,34.7,32.3,30.36,WNW,301,5.0,6.0,91,0.00,,,0.00,0,Wunderground v.1.15,2013-11-22 02:55:00,
2013-11-21 20:58:00,34.6,32.2,30.37,NNW,328,4.0,6.0,91,0.00,,,0.00,0,Wunderground v.1.15,2013-11-22 02:58:00,
2013-11-21 21:00:00,34.5,32.1,30.37,NW,321,4.0,4.0,91,0.00,,,0.00,0,Wunderground v.1.15,2013-11-22 03:00:00,
2013-11-21 21:02:00,34.4,32.3,30.37,NW,324,4.0,8.0,92,0.00,,,0.00,0,Wunderground v.1.15,2013-11-22 03:02:00,
2013-11-21 21:03:00,34.4,32.3,30.37,NW,323,4.0,8.0,92,0.00,,,0.00,0,Wunderground v.1.15,2013-11-22 03:03:00,
2013-11-21 21:05:00,34.3,32.2,30.36,WNW,288,4.0,11.0,92,0.00,,,0.00,0,Wunderground v.1.15,2013-11-22 03:05:00,
2013-11-21 21:08:00,34.2,32.1,30.37,NNW,344,5.0,11.0,92,0.00,,,0.00,0,Wunderground v.1.15,2013-11-22 03:08:00,
2013-11-21 21:12:00,34.0,31.9,30.37,NW,315,5.0,5.0,92,0.00,,,0.00,0,Wunderground v.1.15,2013-11-22 03:12:00,
2013-11-21 21:13:00,34.0,31.9,30.37,NW,324,5.0,7.0,92,0.00,,,0.00,0,Wunderground v.1.15,2013-11-22 03:13:00,
2013-11-21 21:14:00,34.0,31.9,30.37,NNW,335,5.0,7.0,92,0.00,,,0.00,0,Wunderground v.1.15,2013-11-22 03:14:00,
2013-11-21 21:18:00,33.8,31.7,30.37,WNW,300,4.0,7.0,92,0.00,,,0.00,0,Wunderground v.1.15,2013-11-22 03:18:00,
2013-11-21 21:19:00,33.8,31.7,30.37,NNW,333,4.0,7.0,92,0.00,,,0.00,0,Wunderground v.1.15,2013-11-22 03:19:00,
2013-11-21 21:20:00,33.8,31.7,30.37,NNW,339,5.0,5.0,92,0.00,,,0.00,0,Wunderground v.1.15,2013-11-22 03:20:00,
2013-11-21 21:22:00,33.8,31.7,30.37,NNW,328,4.0,5.0,92,0.00,,,0.00,0,Wunderground v.1.15,2013-11-22 03:22:00,
2013-11-21 21:23:00,33.8,31.7,30.37,NW,322,4.0,5.0,92,0.00,,,0.00,0,Wunderground v.1.15,2013-11-22 03:23:00,
2013-11-21 21:24:00,33.8,31.7,30.37,NW,323,4.0,5.0,92,0.00,,,0.00,0,Wunderground v.1.15,2013-11-22 03:24:00,
2013-11-21 21:26:00,33.7,31.6,30.37,NW,312,4.0,10.0,92,0.00,,,0.00,0,Wunderground v.1.15,2013-11-22 03:26:00,
2013-11-21 21:27:00,33.7,31.6,30.37,NW,309,4.0,10.0,92,0.00,,,0.00,0,Wunderground v.1.15,2013-11-22 03:27:00,
2013-11-21 21:28:00,33.7,31.6,30.37,WNW,282,4.0,10.0,92,0.00,,,0.00,0,Wunderground v.1.15,2013-11-22 03:28:00,
2013-11-21 21:30:00,33.6,31.5,30.37,WNW,288,3.0,3.0,92,0.00,,,0.00,0,Wunderground v.1.15,2013-11-22 03:30:00,
2013-11-21 21:31:00,33.6,31.5,30.37,WNW,288,3.0,3.0,92,0.00,,,0.00,0,Wunderground v.1.15,2013-11-22 03:31:00,
2013-11-21 21:34:00,33.6,31.5,30.37,NW,311,3.0,6.0,92,0.00,,,0.00,0,Wunderground v.1.15,2013-11-22 03:34:00,
2013-11-21 21:35:00,33.5,31.4,30.37,NW,312,3.0,6.0,92,0.00,,,0.00,0,Wunderground v.1.15,2013-11-22 03:35:00,
2013-11-21 21:36:00,33.5,31.4,30.37,NW,309,3.0,6.0,92,0.00,,,0.00,0,Wunderground v.1.15,2013-11-22 03:36:00,
2013-11-21 21:37:00,33.4,31.3,30.37,NW,306,3.0,6.0,92,0.00,,,0.00,0,Wunderground v.1.15,2013-11-22 03:37:00,
2013-11-21 21:39:00,33.4,31.3,30.37,West,265,3.0,8.0,92,0.00,,,0.00,0,Wunderground v.1.15,2013-11-22 03:39:00,
2013-11-21 21:40:00,33.3,31.2,30.37,WNW,286,3.0,4.0,92,0.00,,,0.00,0,Wunderground v.1.15,2013-11-22 03:40:00,
2013-11-21 21:44:00,33.2,31.1,30.37,NW,316,4.0,6.0,92,0.00,,,0.00,0,Wunderground v.1.15,2013-11-22 03:44:00,
2013-11-21 21:45:00,33.1,31.0,30.37,NW,314,4.0,6.0,92,0.00,,,0.00,0,Wunderground v.1.15,2013-11-22 03:45:00,
2013-11-21 21:46:00,33.1,31.0,30.37,WSW,246,4.0,6.0,92,0.00,,,0.00,0,Wunderground v.1.15,2013-11-22 03:46:00,
2013-11-21 21:47:00,33.0,30.9,30.37,WSW,255,4.0,12.0,92,0.00,,,0.00,0,Wunderground v.1.15,2013-11-22 03:47:00,
2013-11-21 21:52:00,32.9,30.8,30.38,WNW,283,4.0,9.0,92,0.00,,,0.00,0,Wunderground v.1.15,2013-11-22 03:52:00,
2013-11-21 21:53:00,32.9,30.8,30.38,NNW,333,4.0,9.0,92,0.00,,,0.00,0,Wunderground v.1.15,2013-11-22 03:53:00,
2013-11-21 21:54:00,32.9,30.8,30.38,NW,313,5.0,9.0,92,0.00,,,0.00,0,Wunderground v.1.15,2013-11-22 03:54:00,
2013-11-21 21:56:00,32.8,30.7,30.38,WNW,284,5.0,9.0,92,0.00,,,0.00,0,Wunderground v.1.15,2013-11-22 03:56:00,
2013-11-21 21:57:00,32.8,30.7,30.38,NW,315,5.0,9.0,92,0.00,,,0.00,0,Wunderground v.1.15,2013-11-22 03:57:00,
2013-11-21 21:58:00,32.8,30.7,30.38,WNW,293,5.0,9.0,92,0.00,,,0.00,0,Wunderground v.1.15,2013-11-22 03:58:00,
2013-11-21 22:01:00,32.7,30.6,30.38,NW,325,5.0,8.0,92,0.00,,,0.00,0,Wunderground v.1.15,2013-11-22 04:01:00,
2013-11-21 22:03:00,32.7,30.6,30.38,NW,310,5.0,12.0,92,0.00,,,0.00,0,Wunderground v.1.15,2013-11-22 04:03:00,
2013-11-21 22:04:00,32.7,30.6,30.38,NW,304,5.0,12.0,92,0.00,,,0.00,0,Wunderground v.1.15,2013-11-22 04:04:00,
2013-11-21 22:05:00,32.7,30.6,30.38,NW,313,6.0,12.0,92,0.00,,,0.00,0,Wunderground v.1.15,2013-11-22 04:05:00,
2013-11-21 22:06:00,32.6,30.5,30.38,NNW,334,5.0,12.0,92,0.00,,,0.00,0,Wunderground v.1.15,2013-11-22 04:06:00,
2013-11-21 22:10:00,32.6,30.5,30.39,NNW,332,5.0,5.0,92,0.00,,,0.00,0,Wunderground v.1.15,2013-11-22 04:10:00,
2013-11-21 22:11:00,32.6,30.5,30.39,NNW,335,5.0,5.0,92,0.00,,,0.00,0,Wunderground v.1.15,2013-11-22 04:11:00,
2013-11-21 22:15:00,32.5,30.4,30.39,North,5,4.0,5.0,92,0.00,,,0.00,0,Wunderground v.1.15,2013-11-22 04:15:00,
2013-11-21 22:16:00,32.5,30.4,30.39,NW,305,5.0,7.0,92,0.00,,,0.00,0,Wunderground v.1.15,2013-11-22 04:16:00,
2013-11-21 22:17:00,32.5,30.4,30.39,WNW,294,5.0,7.0,92,0.00,,,0.00,0,Wunderground v.1.15,2013-11-22 04:17:00,
2013-11-21 22:21:00,32.4,30.3,30.40,NW,304,5.0,10.0,92,0.00,,,0.00,0,Wunderground v.1.15,2013-11-22 04:21:00,
2013-11-21 22:22:00,32.3,30.2,30.40,NNW,346,5.0,10.0,92,0.00,,,0.00,0,Wunderground v.1.15,2013-11-22 04:22:00,
2013-11-21 22:23:00,32.3,30.2,30.40,NW,304,5.0,10.0,92,0.00,,,0.00,0,Wunderground v.1.15,2013-11-22 04:23:00,
2013-11-21 22:25:00,32.1,30.0,30.40,NW,315,6.0,10.0,92,0.00,,,0.00,0,Wunderground v.1.15,2013-11-22 04:25:00,
2013-11-21 22:26:00,32.1,30.0,30.40,NW,310,6.0,10.0,92,0.00,,,0.00,0,Wunderground v.1.15,2013-11-22 04:26:00,
2013-11-21 22:27:00,32.0,29.9,30.40,NW,324,6.0,10.0,92,0.00,,,0.00,0,Wunderground v.1.15,2013-11-22 04:27:00,
2013-11-21 22:29:00,32.0,29.9,30.40,West,267,6.0,11.0,92,0.00,,,0.00,0,Wunderground v.1.15,2013-11-22 04:29:00,
2013-11-21 22:30:00,31.9,29.8,30.40,North,5,6.0,6.0,92,0.00,,,0.00,0,Wunderground v.1.15,2013-11-22 04:30:00,
2013-11-21 22:31:00,31.8,29.5,30.40,NW,305,6.0,6.0,91,0.00,,,0.00,0,Wunderground v.1.15,2013-11-22 04:31:00,
2013-11-21 22:33:00,31.7,29.4,30.40,NW,323,6.0,6.0,91,0.00,,,0.00,0,Wunderground v.1.15,2013-11-22 04:33:00,
2013-11-21 22:37:00,31.7,29.4,30.40,NW,305,5.0,6.0,91,0.00,,,0.00,0,Wunderground v.1.15,2013-11-22 04:37:00,
2013-11-21 22:38:00,31.7,29.4,30.40,NNW,332,4.0,6.0,91,0.00,,,0.00,0,Wunderground v.1.15,2013-11-22 04:38:00,
2013-11-21 22:39:00,31.7,29.4,30.40,NNW,329,4.0,6.0,91,0.00,,,0.00,0,Wunderground v.1.15,2013-11-22 04:39:00,
2013-11-21 22:40:00,31.7,29.4,30.40,NNW,331,4.0,4.0,91,0.00,,,0.00,0,Wunderground v.1.15,2013-11-22 04:40:00,
2013-11-21 22:42:00,31.7,29.4,30.40,NNW,347,3.0,4.0,91,0.00,,,0.00,0,Wunderground v.1.15,2013-11-22 04:42:00,
2013-11-21 22:43:00,31.6,29.3,30.40,NNW,338,4.0,4.0,91,0.00,,,0.00,0,Wunderground v.1.15,2013-11-22 04:43:00,
2013-11-21 22:45:00,31.6,29.3,30.40,NW,304,4.0,6.0,91,0.00,,,0.00,0,Wunderground v.1.15,2013-11-22 04:45:00,
2013-11-21 22:46:00,31.6,29.3,30.40,NW,307,4.0,6.0,91,0.00,,,0.00,0,Wunderground v.1.15,2013-11-22 04:46:00,
2013-11-21 22:47:00,31.6,29.3,30.40,NW,306,4.0,6.0,91,0.00,,,0.00,0,Wunderground v.1.15,2013-11-22 04:47:00,
2013-11-21 22:51:00,31.6,29.3,30.40,NNW,337,4.0,5.0,91,0.00,,,0.00,0,Wunderground v.1.15,2013-11-22 04:51:00,
2013-11-21 22:53:00,31.6,29.3,30.41,North,355,4.0,5.0,91,0.00,,,0.00,0,Wunderground v.1.15,2013-11-22 04:53:00,
2013-11-21 22:55:00,31.6,29.3,30.41,NNW,347,4.0,6.0,91,0.00,,,0.00,0,Wunderground v.1.15,2013-11-22 04:55:00,
2013-11-21 22:56:00,31.5,29.2,30.41,WNW,294,4.0,7.0,91,0.00,,,0.00,0,Wunderground v.1.15,2013-11-22 04:56:00,
2013-11-21 22:57:00,31.5,29.2,30.41,NNW,328,4.0,7.0,91,0.00,,,0.00,0,Wunderground v.1.15,2013-11-22 04:57:00,
2013-11-21 22:58:00,31.5,29.2,30.41,NNW,348,5.0,7.0,91,0.00,,,0.00,0,Wunderground v.1.15,2013-11-22 04:58:00,
2013-11-21 22:59:00,31.5,29.2,30.41,North,355,5.0,7.0,91,0.00,,,0.00,0,Wunderground v.1.15,2013-11-22 04:59:00,
2013-11-21 23:01:00,31.4,29.1,30.40,NW,325,5.0,5.0,91,0.00,,,0.00,0,Wunderground v.1.15,2013-11-22 05:01:00,
2013-11-21 23:02:00,31.4,29.1,30.40,North,350,5.0,5.0,91,0.00,,,0.00,0,Wunderground v.1.15,2013-11-22 05:02:00,
2013-11-21 23:05:00,31.4,29.1,30.40,NW,304,5.0,6.0,91,0.00,,,0.00,0,Wunderground v.1.15,2013-11-22 05:05:00,
2013-11-21 23:06:00,31.4,29.1,30.40,NNW,327,5.0,7.0,91,0.00,,,0.00,0,Wunderground v.1.15,2013-11-22 05:06:00,
2013-11-21 23:08:00,31.3,29.0,30.40,WNW,300,5.0,9.0,91,0.00,,,0.00,0,Wunderground v.1.15,2013-11-22 05:08:00,
2013-11-21 23:10:00,31.2,28.9,30.40,WNW,302,6.0,7.0,91,0.00,,,0.00,0,Wunderground v.1.15,2013-11-22 05:10:00,
2013-11-21 23:12:00,31.2,28.9,30.40,North,5,6.0,7.0,91,0.00,,,0.00,0,Wunderground v.1.15,2013-11-22 05:12:00,
2013-11-21 23:15:00,31.2,28.9,30.40,NW,306,5.0,7.0,91,0.00,,,0.00,0,Wunderground v.1.15,2013-11-22 05:15:00,
2013-11-21 23:17:00,31.1,28.8,30.40,NW,321,4.0,7.0,91,0.00,,,0.00,0,Wunderground v.1.15,2013-11-22 05:17:00,
2013-11-21 23:19:00,31.1,28.8,30.40,NW,321,4.0,7.0,91,0.00,,,0.00,0,Wunderground v.1.15,2013-11-22 05:19:00,
2013-11-21 23:21:00,31.1,28.8,30.41,NW,316,3.0,4.0,91,0.00,,,0.00,0,Wunderground v.1.15,2013-11-22 05:21:00,
2013-11-21 23:23:00,31.1,28.8,30.41,NNW,333,3.0,6.0,91,0.00,,,0.00,0,Wunderground v.1.15,2013-11-22 05:23:00,
2013-11-21 23:24:00,31.1,28.8,30.40,WNW,296,4.0,6.0,91,0.00,,,0.00,0,Wunderground v.1.15,2013-11-22 05:24:00,
2013-11-21 23:25:00,31.0,28.7,30.40,NW,325,4.0,7.0,91,0.00,,,0.00,0,Wunderground v.1.15,2013-11-22 05:25:00,
2013-11-21 23:30:00,30.9,28.6,30.41,NW,320,5.0,5.0,91,0.00,,,0.00,0,Wunderground v.1.15,2013-11-22 05:30:00,
2013-11-21 23:31:00,30.9,28.6,30.41,NW,312,5.0,5.0,91,0.00,,,0.00,0,Wunderground v.1.15,2013-11-22 05:31:00,
2013-11-21 23:32:00,30.9,28.6,30.41,NW,313,5.0,5.0,91,0.00,,,0.00,0,Wunderground v.1.15,2013-11-22 05:32:00,
2013-11-21 23:33:00,30.9,28.6,30.41,NNW,343,5.0,5.0,91,0.00,,,0.00,0,Wunderground v.1.15,2013-11-22 05:33:00,
2013-11-21 23:34:00,30.8,28.5,30.41,North,11,5.0,5.0,91,0.00,,,0.00,0,Wunderground v.1.15,2013-11-22 05:34:00,
2013-11-21 23:37:00,30.8,28.5,30.41,North,5,5.0,6.0,91,0.00,,,0.00,0,Wunderground v.1.15,2013-11-22 05:37:00,
2013-11-21 23:39:00,30.8,28.2,30.41,NW,304,4.0,6.0,90,0.00,,,0.00,0,Wunderground v.1.15,2013-11-22 05:39:00,
2013-11-21 23:42:00,30.7,28.1,30.41,NW,306,4.0,4.0,90,0.00,,,0.00,0,Wunderground v.1.15,2013-11-22 05:42:00,
2013-11-21 23:44:00,30.7,28.1,30.41,NW,319,5.0,5.0,90,0.00,,,0.00,0,Wunderground v.1.15,2013-11-22 05:44:00,
2013-11-21 23:45:00,30.7,28.1,30.41,NW,320,5.0,5.0,90,0.00,,,0.00,0,Wunderground v.1.15,2013-11-22 05:45:00,
2013-11-21 23:47:00,30.7,28.1,30.41,NNW,337,4.0,5.0,90,0.00,,,0.00,0,Wunderground v.1.15,2013-11-22 05:47:00,
2013-11-21 23:48:00,30.7,28.4,30.41,NNW,348,4.0,5.0,91,0.00,,,0.00,0,Wunderground v.1.15,2013-11-22 05:48:00,
2013-11-21 23:49:00,30.7,28.4,30.41,NNW,347,4.0,5.0,91,0.00,,,0.00,0,Wunderground v.1.15,2013-11-22 05:49:00,
2013-11-21 23:51:00,30.7,28.4,30.41,NW,319,3.0,4.0,91,0.00,,,0.00,0,Wunderground v.1.15,2013-11-22 05:51:00,
2013-11-21 23:54:00,30.7,28.4,30.40,NW,322,3.0,4.0,91,0.00,,,0.00,0,Wunderground v.1.15,2013-11-22 05:54:00,
2013-11-21 23:55:00,30.7,28.4,30.41,NW,318,3.0,4.0,91,0.00,,,0.00,0,Wunderground v.1.15,2013-11-22 05:55:00,
2013-11-21 23:59:00,30.6,28.3,30.41,NNW,330,4.0,10.0,91,0.00,,,0.00,0,Wunderground v.1.15,2013-11-22 05:59:00,